Observation data for Segovia 7SSW on 11/09/2019      Previous  Date       Current Mesonet Observations  Soil Data  Daily Summary Page  Observations in Plain Language
KSE2 090600Z 21001KT 05/05 A3033 RMK A01 T00530049  RH  097%=      5-min Rain = 0
KSE2 090601Z 21001KT 05/05 A3033 RMK A01 T00530049  RH  097%=      5-min Rain = 0
KSE2 090602Z 22001KT 05/05 A3034 RMK A01 T00530049  RH  097%=      5-min Rain = 0
KSE2 090603Z 23001KT 05/05 A3034 RMK A01 T00530049  RH  097%=      5-min Rain = 0
KSE2 090604Z 23001KT 05/05 A3034 RMK A01 T00530049  RH  097%=      5-min Rain = 0
KSE2 090605Z 23001KT 05/05 A3034 RMK A01 T00520049  RH  097%=      5-min Rain = 0
KSE2 090606Z 23002KT 05/05 A3033 RMK A01 T00520049  RH  097%=      5-min Rain = 0
KSE2 090607Z 23001KT 05/05 A3033 RMK A01 T00520049  RH  097%=      5-min Rain = 0
KSE2 090608Z 23001KT 05/05 A3033 RMK A01 T00520049  RH  097%=      5-min Rain = 0
KSE2 090609Z 23001KT 05/05 A3034 RMK A01 T00520048  RH  097%=      5-min Rain = 0
KSE2 090610Z 23000KT 05/05 A3034 RMK A01 T00520048  RH  097%=      5-min Rain = 0
KSE2 090611Z 23000KT 05/05 A3034 RMK A01 T00520048  RH  097%=      5-min Rain = 0
KSE2 090612Z 24001KT 05/05 A3034 RMK A01 T00520048  RH  097%=      5-min Rain = 0
KSE2 090613Z 24001KT 05/05 A3034 RMK A01 T00520048  RH  097%=      5-min Rain = 0
KSE2 090614Z 24001KT 05/05 A3034 RMK A01 T00510048  RH  097%=      5-min Rain = 0
KSE2 090615Z 24001KT 05/05 A3034 RMK A01 T00510047  RH  097%=      5-min Rain = 0
KSE2 090616Z 25001KT 05/05 A3034 RMK A01 T00510047  RH  097%=      5-min Rain = 0
KSE2 090617Z 25001KT 05/05 A3033 RMK A01 T00510048  RH  097%=      5-min Rain = 0
KSE2 090618Z 26001KT 05/05 A3033 RMK A01 T00520048  RH  098%=      5-min Rain = 0
KSE2 090619Z 26001KT 05/05 A3033 RMK A01 T00510048  RH  098%=      5-min Rain = 0
KSE2 090620Z 27001KT 05/05 A3033 RMK A01 T00520048  RH  098%=      5-min Rain = 0
KSE2 090621Z 27002KT 05/05 A3033 RMK A01 T00520048  RH  098%=      5-min Rain = 0
KSE2 090622Z 27002KT 05/05 A3033 RMK A01 T00520048  RH  098%=      5-min Rain = 0
KSE2 090623Z 27002KT 05/05 A3033 RMK A01 T00520048  RH  098%=      5-min Rain = 0
KSE2 090624Z 28002KT 05/05 A3033 RMK A01 T00520048  RH  098%=      5-min Rain = 0
KSE2 090625Z 29002KT 05/05 A3033 RMK A01 T00520048  RH  098%=      5-min Rain = 0
KSE2 090626Z 30002KT 05/05 A3033 RMK A01 T00510047  RH  097%=      5-min Rain = 0
KSE2 090627Z 30002KT 05/05 A3033 RMK A01 T00500046  RH  097%=      5-min Rain = 0
KSE2 090628Z 30002KT 05/05 A3033 RMK A01 T00500046  RH  097%=      5-min Rain = 0
KSE2 090629Z 31002KT 05/05 A3033 RMK A01 T00500046  RH  097%=      5-min Rain = 0
KSE2 090630Z 32002KT 05/05 A3033 RMK A01 T00500046  RH  098%=      5-min Rain = 0
KSE2 090631Z 32002KT 05/05 A3033 RMK A01 T00500046  RH  098%=      5-min Rain = 0
KSE2 090632Z 31002KT 05/05 A3033 RMK A01 T00500047  RH  098%=      5-min Rain = 0
KSE2 090633Z 31002KT 05/05 A3033 RMK A01 T00510047  RH  098%=      5-min Rain = 0
KSE2 090634Z 30002KT 05/05 A3033 RMK A01 T00500047  RH  098%=      5-min Rain = 0
KSE2 090635Z 30002KT 05/05 A3033 RMK A01 T00500047  RH  098%=      5-min Rain = 0
KSE2 090636Z 30002KT 05/05 A3033 RMK A01 T00500047  RH  098%=      5-min Rain = 0
KSE2 090637Z 30002KT 05/05 A3033 RMK A01 T00510047  RH  098%=      5-min Rain = 0
KSE2 090638Z 30001KT 05/05 A3033 RMK A01 T00500047  RH  098%=      5-min Rain = 0
KSE2 090639Z 30001KT 05/05 A3033 RMK A01 T00500047  RH  098%=      5-min Rain = 0
KSE2 090640Z 30001KT 05/05 A3033 RMK A01 T00500047  RH  098%=      5-min Rain = 0
KSE2 090641Z 30001KT 05/05 A3033 RMK A01 T00500046  RH  098%=      5-min Rain = 0
KSE2 090642Z 30001KT 05/05 A3033 RMK A01 T00500047  RH  098%=      5-min Rain = 0
KSE2 090643Z 30001KT 05/05 A3033 RMK A01 T00500046  RH  098%=      5-min Rain = 0
KSE2 090644Z 30002KT 05/05 A3033 RMK A01 T00490045  RH  098%=      5-min Rain = 0
KSE2 090645Z 30002KT 05/05 A3033 RMK A01 T00490045  RH  098%=      5-min Rain = 0
KSE2 090646Z 30002KT 05/04 A3033 RMK A01 T00480044  RH  097%=      5-min Rain = 0
KSE2 090647Z 30002KT 05/04 A3033 RMK A01 T00480044  RH  097%=      5-min Rain = 0
KSE2 090648Z 30002KT 05/04 A3033 RMK A01 T00480044  RH  098%=      5-min Rain = 0
KSE2 090649Z 30002KT 05/05 A3033 RMK A01 T00480045  RH  098%=      5-min Rain = 0
KSE2 090650Z 30002KT 05/05 A3032 RMK A01 T00490045  RH  098%=      5-min Rain = 0
KSE2 090651Z 29002KT 05/05 A3032 RMK A01 T00480045  RH  098%=      5-min Rain = 0
KSE2 090652Z 29002KT 05/05 A3032 RMK A01 T00480045  RH  098%=      5-min Rain = 0
KSE2 090653Z 29002KT 05/05 A3032 RMK A01 T00480045  RH  098%=      5-min Rain = 0
KSE2 090654Z 29002KT 05/05 A3032 RMK A01 T00480045  RH  098%=      5-min Rain = 0
KSE2 090655Z 29002KT 05/05 A3032 RMK A01 T00480045  RH  098%=      5-min Rain = 0
KSE2 090656Z 29001KT 05/05 A3032 RMK A01 T00480045  RH  098%=      5-min Rain = 0
KSE2 090657Z 29001KT 05/05 A3032 RMK A01 T00480045  RH  098%=      5-min Rain = 0
KSE2 090658Z 29001KT 05/05 A3032 RMK A01 T00490045  RH  098%=      5-min Rain = 0
KSE2 090659Z 29001KT 05/05 A3032 RMK A01 T00490045  RH  098%=      5-min Rain = 0
KSE2 090700Z 29001KT 05/05 A3032 RMK A01 T00490046  RH  098%=      5-min Rain = 0
KSE2 090701Z 29001KT 05/05 A3032 RMK A01 T00490045  RH  098%=      5-min Rain = 0
KSE2 090702Z 28001KT 05/04 A3032 RMK A01 T00480044  RH  098%=      5-min Rain = 0
KSE2 090703Z 27002KT 05/04 A3032 RMK A01 T00470044  RH  098%=      5-min Rain = 0
KSE2 090704Z 26002KT 05/04 A3032 RMK A01 T00470043  RH  098%=      5-min Rain = 0
KSE2 090705Z 26002KT 05/04 A3032 RMK A01 T00470044  RH  098%=      5-min Rain = 0
KSE2 090706Z 27003KT 05/05 A3032 RMK A01 T00480045  RH  098%=      5-min Rain = 0
KSE2 090707Z 27003KT 05/05 A3032 RMK A01 T00500047  RH  098%=      5-min Rain = 0
KSE2 090708Z 27003KT 05/05 A3032 RMK A01 T00510048  RH  098%=      5-min Rain = 0
KSE2 090709Z 27003KT 05/05 A3032 RMK A01 T00520049  RH  098%=      5-min Rain = 0
KSE2 090710Z 27003KT 05/05 A3032 RMK A01 T00530050  RH  098%=      5-min Rain = 0
KSE2 090711Z 27003KT 05/05 A3032 RMK A01 T00530050  RH  098%=      5-min Rain = 0
KSE2 090712Z 27003KT 05/05 A3032 RMK A01 T00530050  RH  098%=      5-min Rain = 0
KSE2 090713Z 27004KT 05/05 A3032 RMK A01 T00530050  RH  098%=      5-min Rain = 0
KSE2 090714Z 26004KT 05/05 A3032 RMK A01 T00530050  RH  098%=      5-min Rain = 0
KSE2 090715Z 26005KT 05/05 A3032 RMK A01 T00540051  RH  098%=      5-min Rain = 0
KSE2 090716Z 26005KT 06/05 A3032 RMK A01 T00550052  RH  098%=      5-min Rain = 0
KSE2 090717Z 26005KT 06/05 A3033 RMK A01 T00550052  RH  098%=      5-min Rain = 0
KSE2 090718Z 27004KT 06/05 A3033 RMK A01 T00550052  RH  098%=      5-min Rain = 0
KSE2 090719Z 27005KT 06/05 A3033 RMK A01 T00560053  RH  098%=      5-min Rain = 0
KSE2 090720Z 27004KT 06/05 A3033 RMK A01 T00570054  RH  098%=      5-min Rain = 0
KSE2 090721Z 27004KT 06/05 A3033 RMK A01 T00570054  RH  098%=      5-min Rain = 0
KSE2 090722Z 27004KT 06/05 A3033 RMK A01 T00570054  RH  098%=      5-min Rain = 0
KSE2 090723Z 27004KT 06/05 A3033 RMK A01 T00570054  RH  098%=      5-min Rain = 0
KSE2 090724Z 27003KT 06/05 A3032 RMK A01 T00570054  RH  098%=      5-min Rain = 0
KSE2 090725Z 27003KT 06/05 A3032 RMK A01 T00570054  RH  098%=      5-min Rain = 0
KSE2 090726Z 27003KT 06/05 A3032 RMK A01 T00570053  RH  098%=      5-min Rain = 0
KSE2 090727Z 27003KT 06/05 A3032 RMK A01 T00570053  RH  098%=      5-min Rain = 0
KSE2 090728Z 27003KT 06/05 A3032 RMK A01 T00570053  RH  098%=      5-min Rain = 0
KSE2 090729Z 27003KT 06/05 A3032 RMK A01 T00570053  RH  098%=      5-min Rain = 0
KSE2 090730Z 27002KT 06/05 A3032 RMK A01 T00570053  RH  098%=      5-min Rain = 0
KSE2 090731Z 27003KT 06/05 A3032 RMK A01 T00570053  RH  098%=      5-min Rain = 0
KSE2 090732Z 27003KT 06/05 A3032 RMK A01 T00560052  RH  097%=      5-min Rain = 0
KSE2 090733Z 27003KT 06/05 A3032 RMK A01 T00560052  RH  097%=      5-min Rain = 0
KSE2 090734Z 28003KT 06/05 A3032 RMK A01 T00560053  RH  097%=      5-min Rain = 0
KSE2 090735Z 28003KT 06/05 A3032 RMK A01 T00560053  RH  097%=      5-min Rain = 0
KSE2 090736Z 29003KT 06/05 A3032 RMK A01 T00560052  RH  097%=      5-min Rain = 0
KSE2 090737Z 29003KT 06/05 A3032 RMK A01 T00560053  RH  097%=      5-min Rain = 0
KSE2 090738Z 29003KT 06/05 A3032 RMK A01 T00560052  RH  097%=      5-min Rain = 0
KSE2 090739Z 29003KT 06/05 A3032 RMK A01 T00560052  RH  097%=      5-min Rain = 0
KSE2 090740Z 30003KT 06/05 A3032 RMK A01 T00560052  RH  097%=      5-min Rain = 0
KSE2 090741Z 30003KT 06/05 A3032 RMK A01 T00560052  RH  097%=      5-min Rain = 0
KSE2 090742Z 30002KT 06/05 A3032 RMK A01 T00560052  RH  097%=      5-min Rain = 0
KSE2 090743Z 31003KT 06/05 A3032 RMK A01 T00550051  RH  097%=      5-min Rain = 0
KSE2 090744Z 31003KT 06/05 A3032 RMK A01 T00550051  RH  097%=      5-min Rain = 0
KSE2 090745Z 31002KT 05/05 A3032 RMK A01 T00540050  RH  097%=      5-min Rain = 0
KSE2 090746Z 30002KT 05/05 A3032 RMK A01 T00540049  RH  097%=      5-min Rain = 0
KSE2 090747Z 30002KT 05/05 A3032 RMK A01 T00530049  RH  097%=      5-min Rain = 0
KSE2 090748Z 29002KT 05/05 A3032 RMK A01 T00530049  RH  097%=      5-min Rain = 0
KSE2 090749Z 29003KT 05/05 A3032 RMK A01 T00530049  RH  097%=      5-min Rain = 0
KSE2 090750Z 29003KT 05/05 A3032 RMK A01 T00530049  RH  097%=      5-min Rain = 0
KSE2 090751Z 29003KT 05/05 A3032 RMK A01 T00530048  RH  097%=      5-min Rain = 0
KSE2 090752Z 29003KT 05/05 A3032 RMK A01 T00520048  RH  097%=      5-min Rain = 0
KSE2 090753Z 29003KT 05/05 A3032 RMK A01 T00520048  RH  097%=      5-min Rain = 0
KSE2 090754Z 29003KT 05/05 A3031 RMK A01 T00520048  RH  097%=      5-min Rain = 0
KSE2 090755Z 29003KT 05/05 A3031 RMK A01 T00520048  RH  097%=      5-min Rain = 0
KSE2 090756Z 29003KT 05/05 A3031 RMK A01 T00520048  RH  097%=      5-min Rain = 0
KSE2 090757Z 29003KT 05/05 A3032 RMK A01 T00530049  RH  097%=      5-min Rain = 0
KSE2 090758Z 29003KT 05/05 A3032 RMK A01 T00530049  RH  097%=      5-min Rain = 0
KSE2 090759Z 29003KT 05/05 A3031 RMK A01 T00540050  RH  097%=      5-min Rain = 0
KSE2 090800Z 29003KT 05/05 A3031 RMK A01 T00540050  RH  097%=      5-min Rain = 0
KSE2 090801Z 29003KT 05/05 A3031 RMK A01 T00540050  RH  097%=      5-min Rain = 0
KSE2 090802Z 29003KT 05/05 A3031 RMK A01 T00540050  RH  097%=      5-min Rain = 0
KSE2 090803Z 29003KT 05/05 A3031 RMK A01 T00540050  RH  097%=      5-min Rain = 0
KSE2 090804Z 29003KT 05/05 A3031 RMK A01 T00540050  RH  097%=      5-min Rain = 0
KSE2 090805Z 29003KT 05/05 A3031 RMK A01 T00540050  RH  097%=      5-min Rain = 0
KSE2 090806Z 28003KT 06/05 A3031 RMK A01 T00550051  RH  097%=      5-min Rain = 0
KSE2 090807Z 28003KT 06/05 A3031 RMK A01 T00550051  RH  097%=      5-min Rain = 0
KSE2 090808Z 28003KT 06/05 A3031 RMK A01 T00550051  RH  097%=      5-min Rain = 0
KSE2 090809Z 28003KT 06/05 A3031 RMK A01 T00550051  RH  097%=      5-min Rain = 0
KSE2 090810Z 28003KT 06/05 A3031 RMK A01 T00550051  RH  097%=      5-min Rain = 0
KSE2 090811Z 28003KT 06/05 A3031 RMK A01 T00550051  RH  097%=      5-min Rain = 0
KSE2 090812Z 27003KT 06/05 A3031 RMK A01 T00550051  RH  097%=      5-min Rain = 0
KSE2 090813Z 27003KT 06/05 A3031 RMK A01 T00550051  RH  097%=      5-min Rain = 0
KSE2 090814Z 28003KT 06/05 A3031 RMK A01 T00550051  RH  097%=      5-min Rain = 0
KSE2 090815Z 28003KT 06/05 A303 RMK A01 T00560052  RH  097%=      5-min Rain = 0
KSE2 090816Z 28003KT 06/05 A303 RMK A01 T00560052  RH  097%=      5-min Rain = 0
KSE2 090817Z 28003KT 06/05 A303 RMK A01 T00560052  RH  097%=      5-min Rain = 0
KSE2 090818Z 29003KT 06/05 A303 RMK A01 T00560052  RH  097%=      5-min Rain = 0
KSE2 090819Z 29003KT 06/05 A303 RMK A01 T00550051  RH  097%=      5-min Rain = 0
KSE2 090820Z 29004KT 06/05 A303 RMK A01 T00550051  RH  097%=      5-min Rain = 0
KSE2 090821Z 29004KT 05/05 A303 RMK A01 T00540050  RH  097%=      5-min Rain = 0
KSE2 090822Z 29004KT 06/05 A303 RMK A01 T00550050  RH  097%=      5-min Rain = 0
KSE2 090823Z 29004KT 05/05 A303 RMK A01 T00540050  RH  097%=      5-min Rain = 0
KSE2 090824Z 29004KT 05/05 A303 RMK A01 T00540050  RH  097%=      5-min Rain = 0
KSE2 090825Z 29004KT 05/05 A303 RMK A01 T00540050  RH  097%=      5-min Rain = 0
KSE2 090826Z 28003KT 05/05 A303 RMK A01 T00540050  RH  097%=      5-min Rain = 0
KSE2 090827Z 28003KT 05/05 A303 RMK A01 T00540050  RH  097%=      5-min Rain = 0
KSE2 090828Z 29003KT 05/05 A303 RMK A01 T00540050  RH  097%=      5-min Rain = 0
KSE2 090829Z 29003KT 05/05 A303 RMK A01 T00540050  RH  097%=      5-min Rain = 0
KSE2 090830Z 29003KT 05/05 A303 RMK A01 T00530049  RH  097%=      5-min Rain = 0
KSE2 090831Z 29003KT 05/05 A303 RMK A01 T00520048  RH  097%=      5-min Rain = 0
KSE2 090832Z 29003KT 05/05 A303 RMK A01 T00520048  RH  097%=      5-min Rain = 0
KSE2 090833Z 29003KT 05/05 A303 RMK A01 T00530048  RH  097%=      5-min Rain = 0
KSE2 090834Z 29003KT 05/05 A303 RMK A01 T00530048  RH  097%=      5-min Rain = 0
KSE2 090835Z 30003KT 05/05 A303 RMK A01 T00530049  RH  097%=      5-min Rain = 0
KSE2 090836Z 30003KT 05/05 A303 RMK A01 T00530048  RH  097%=      5-min Rain = 0
KSE2 090837Z 30003KT 05/05 A303 RMK A01 T00520048  RH  097%=      5-min Rain = 0
KSE2 090838Z 29003KT 05/05 A303 RMK A01 T00520048  RH  097%=      5-min Rain = 0
KSE2 090839Z 29003KT 05/05 A303 RMK A01 T00520048  RH  097%=      5-min Rain = 0
KSE2 090840Z 29003KT 05/05 A3029 RMK A01 T00520048  RH  097%=      5-min Rain = 0
KSE2 090841Z 29003KT 05/05 A3029 RMK A01 T00530049  RH  097%=      5-min Rain = 0
KSE2 090842Z 29003KT 05/05 A3029 RMK A01 T00530049  RH  097%=      5-min Rain = 0
KSE2 090843Z 29003KT 05/05 A3029 RMK A01 T00530049  RH  097%=      5-min Rain = 0
KSE2 090844Z 29003KT 05/05 A3029 RMK A01 T00520048  RH  097%=      5-min Rain = 0
KSE2 090845Z 29003KT 05/05 A3029 RMK A01 T00530049  RH  097%=      5-min Rain = 0
KSE2 090846Z 29003KT 05/05 A3029 RMK A01 T00540050  RH  097%=      5-min Rain = 0
KSE2 090847Z 29003KT 05/05 A3029 RMK A01 T00540050  RH  097%=      5-min Rain = 0
KSE2 090848Z 30003KT 05/05 A3029 RMK A01 T00540050  RH  097%=      5-min Rain = 0
KSE2 090849Z 30003KT 05/05 A3029 RMK A01 T00530049  RH  097%=      5-min Rain = 0
KSE2 090850Z 30003KT 05/05 A3029 RMK A01 T00530049  RH  097%=      5-min Rain = 0
KSE2 090851Z 30003KT 05/05 A3029 RMK A01 T00530049  RH  097%=      5-min Rain = 0
KSE2 090852Z 30003KT 05/05 A3029 RMK A01 T00530049  RH  097%=      5-min Rain = 0
KSE2 090853Z 30003KT 05/05 A3029 RMK A01 T00530049  RH  097%=      5-min Rain = 0
KSE2 090854Z 30003KT 05/05 A3029 RMK A01 T00530049  RH  097%=      5-min Rain = 0
KSE2 090855Z 30004KT 05/05 A3029 RMK A01 T00530049  RH  097%=      5-min Rain = 0
KSE2 090856Z 30004KT 05/05 A3029 RMK A01 T00530049  RH  097%=      5-min Rain = 0
KSE2 090857Z 30004KT 05/05 A3029 RMK A01 T00530049  RH  097%=      5-min Rain = 0
KSE2 090858Z 30004KT 05/05 A3029 RMK A01 T00530049  RH  097%=      5-min Rain = 0
KSE2 090859Z 30004KT 05/05 A3029 RMK A01 T00530049  RH  097%=      5-min Rain = 0
KSE2 090900Z 29003KT 05/05 A3029 RMK A01 T00530049  RH  097%=      5-min Rain = 0
KSE2 090901Z 29003KT 05/05 A3029 RMK A01 T00540050  RH  097%=      5-min Rain = 0
KSE2 090902Z 29003KT 05/05 A3029 RMK A01 T00540050  RH  097%=      5-min Rain = 0
KSE2 090903Z 29003KT 05/05 A3029 RMK A01 T00540050  RH  097%=      5-min Rain = 0
KSE2 090904Z 29003KT 06/05 A3029 RMK A01 T00550051  RH  097%=      5-min Rain = 0
KSE2 090905Z 29003KT 06/05 A3029 RMK A01 T00550051  RH  097%=      5-min Rain = 0
KSE2 090906Z 28003KT 06/05 A3029 RMK A01 T00550051  RH  097%=      5-min Rain = 0
KSE2 090907Z 28003KT 06/05 A3029 RMK A01 T00550051  RH  097%=      5-min Rain = 0
KSE2 090908Z 27002KT 06/05 A3029 RMK A01 T00550051  RH  097%=      5-min Rain = 0
KSE2 090909Z 28002KT 05/05 A3029 RMK A01 T00540051  RH  097%=      5-min Rain = 0
KSE2 090910Z 28002KT 05/05 A3029 RMK A01 T00540050  RH  097%=      5-min Rain = 0
KSE2 090911Z 27001KT 05/05 A3029 RMK A01 T00540050  RH  097%=      5-min Rain = 0
KSE2 090912Z 27001KT 05/05 A3029 RMK A01 T00530049  RH  097%=      5-min Rain = 0
KSE2 090913Z 28001KT 05/05 A3029 RMK A01 T00530049  RH  097%=      5-min Rain = 0
KSE2 090914Z 28001KT 05/05 A3029 RMK A01 T00520048  RH  097%=      5-min Rain = 0
KSE2 090915Z 29001KT 05/05 A3029 RMK A01 T00520048  RH  097%=      5-min Rain = 0
KSE2 090916Z 29001KT 05/05 A3029 RMK A01 T00520048  RH  097%=      5-min Rain = 0
KSE2 090917Z 29001KT 05/05 A3029 RMK A01 T00520048  RH  097%=      5-min Rain = 0
KSE2 090918Z 29001KT 05/05 A3029 RMK A01 T00520048  RH  097%=      5-min Rain = 0
KSE2 090919Z 28002KT 05/05 A3029 RMK A01 T00520047  RH  097%=      5-min Rain = 0
KSE2 090920Z 29002KT 05/05 A3029 RMK A01 T00510047  RH  097%=      5-min Rain = 0
KSE2 090921Z 29002KT 05/05 A3029 RMK A01 T00510047  RH  097%=      5-min Rain = 0
KSE2 090922Z 29002KT 05/05 A3029 RMK A01 T00520048  RH  097%=      5-min Rain = 0
KSE2 090923Z 29002KT 05/05 A3029 RMK A01 T00530049  RH  097%=      5-min Rain = 0
KSE2 090924Z 30002KT 05/05 A3029 RMK A01 T00530049  RH  097%=      5-min Rain = 0
KSE2 090925Z 30002KT 05/05 A3029 RMK A01 T00540050  RH  097%=      5-min Rain = 0
KSE2 090926Z 30003KT 05/05 A3029 RMK A01 T00540050  RH  097%=      5-min Rain = 0
KSE2 090927Z 30003KT 05/05 A3029 RMK A01 T00530049  RH  097%=      5-min Rain = 0
KSE2 090928Z 30003KT 05/05 A3029 RMK A01 T00530049  RH  097%=      5-min Rain = 0
KSE2 090929Z 30003KT 05/05 A3029 RMK A01 T00530049  RH  097%=      5-min Rain = 0
KSE2 090930Z 30003KT 05/05 A3029 RMK A01 T00530049  RH  097%=      5-min Rain = 0
KSE2 090931Z 30003KT 05/05 A3029 RMK A01 T00540050  RH  097%=      5-min Rain = 0
KSE2 090932Z 30003KT 05/05 A3029 RMK A01 T00540050  RH  097%=      5-min Rain = 0
KSE2 090933Z 30003KT 05/05 A3029 RMK A01 T00540050  RH  097%=      5-min Rain = 0
KSE2 090934Z 29004KT 05/05 A3029 RMK A01 T00530049  RH  097%=      5-min Rain = 0
KSE2 090935Z 29004KT 05/05 A3029 RMK A01 T00530049  RH  097%=      5-min Rain = 0
KSE2 090936Z 29004KT 05/05 A3029 RMK A01 T00530049  RH  097%=      5-min Rain = 0
KSE2 090937Z 30004KT 05/05 A3029 RMK A01 T00520048  RH  097%=      5-min Rain = 0
KSE2 090938Z 29004KT 05/05 A3029 RMK A01 T00520048  RH  097%=      5-min Rain = 0
KSE2 090939Z 29004KT 05/05 A3029 RMK A01 T00510048  RH  097%=      5-min Rain = 0
KSE2 090940Z 29004KT 05/05 A3029 RMK A01 T00510047  RH  097%=      5-min Rain = 0
KSE2 090941Z 29004KT 05/05 A3029 RMK A01 T00500046  RH  097%=      5-min Rain = 0
KSE2 090942Z 29004KT 05/05 A3029 RMK A01 T00500046  RH  097%=      5-min Rain = 0
KSE2 090943Z 29003KT 05/05 A3029 RMK A01 T00500047  RH  097%=      5-min Rain = 0
KSE2 090944Z 28003KT 05/05 A3029 RMK A01 T00500046  RH  097%=      5-min Rain = 0
KSE2 090945Z 28003KT 05/05 A3029 RMK A01 T00500047  RH  097%=      5-min Rain = 0
KSE2 090946Z 28003KT 05/05 A3029 RMK A01 T00510048  RH  098%=      5-min Rain = 0
KSE2 090947Z 28003KT 05/05 A3028 RMK A01 T00520048  RH  098%=      5-min Rain = 0
KSE2 090948Z 28002KT 05/05 A3028 RMK A01 T00530049  RH  098%=      5-min Rain = 0
KSE2 090949Z 28002KT 05/05 A3029 RMK A01 T00530050  RH  098%=      5-min Rain = 0
KSE2 090950Z 27003KT 05/05 A3029 RMK A01 T00540050  RH  098%=      5-min Rain = 0
KSE2 090951Z 27003KT 05/05 A3029 RMK A01 T00540050  RH  098%=      5-min Rain = 0
KSE2 090952Z 26002KT 05/05 A3029 RMK A01 T00530050  RH  098%=      5-min Rain = 0
KSE2 090953Z 23001KT 05/05 A3028 RMK A01 T00530049  RH  097%=      5-min Rain = 0
KSE2 090954Z 20001KT 05/05 A3028 RMK A01 T00510047  RH  097%=      5-min Rain = 0
KSE2 090955Z 17001KT 05/05 A3028 RMK A01 T00500046  RH  097%=      5-min Rain = 0
KSE2 090956Z 14001KT 05/05 A3028 RMK A01 T00490045  RH  097%=      5-min Rain = 0
KSE2 090957Z 13001KT 05/04 A3028 RMK A01 T00480044  RH  097%=      5-min Rain = 0
KSE2 090958Z 13001KT 05/04 A3028 RMK A01 T00480043  RH  097%=      5-min Rain = 0
KSE2 090959Z 13001KT 05/04 A3028 RMK A01 T00480043  RH  097%=      5-min Rain = 0
KSE2 091000Z 11001KT 05/04 A3028 RMK A01 T00470043  RH  097%=      5-min Rain = 0
KSE2 091001Z 11000KT 05/04 A3028 RMK A01 T00470043  RH  097%=      5-min Rain = 0
KSE2 091002Z 11001KT 05/04 A3028 RMK A01 T00470043  RH  097%=      5-min Rain = 0
KSE2 091003Z 11000KT 05/04 A3028 RMK A01 T00470043  RH  097%=      5-min Rain = 0
KSE2 091004Z 00000KT 05/04 A3028 RMK A01 T00470043  RH  097%=      5-min Rain = 0
KSE2 091005Z 00000KT 05/04 A3028 RMK A01 T00470043  RH  097%=      5-min Rain = 0
KSE2 091006Z 00000KT 05/04 A3028 RMK A01 T00470043  RH  097%=      5-min Rain = 0
KSE2 091007Z 00000KT 05/04 A3028 RMK A01 T00470043  RH  097%=      5-min Rain = 0
KSE2 091008Z 34001KT 05/04 A3028 RMK A01 T00470043  RH  097%=      5-min Rain = 0
KSE2 091009Z 34001KT 05/04 A3028 RMK A01 T00470043  RH  098%=      5-min Rain = 0
KSE2 091010Z 34002KT 05/04 A3028 RMK A01 T00470044  RH  098%=      5-min Rain = 0
KSE2 091011Z 35002KT 05/04 A3028 RMK A01 T00470043  RH  097%=      5-min Rain = 0
KSE2 091012Z 35002KT 05/04 A3028 RMK A01 T00450042  RH  097%=      5-min Rain = 0
KSE2 091013Z 36003KT 04/04 A3028 RMK A01 T00440040  RH  097%=      5-min Rain = 0
KSE2 091014Z 00003KT 04/04 A3028 RMK A01 T00440040  RH  097%=      5-min Rain = 0
KSE2 091015Z 01004KT 05/04 A3028 RMK A01 T00450041  RH  098%=      5-min Rain = 0
KSE2 091016Z 02004KT 05/04 A3028 RMK A01 T00470044  RH  098%=      5-min Rain = 0
KSE2 091017Z 02004KT 05/05 A3028 RMK A01 T00480045  RH  098%=      5-min Rain = 0
KSE2 091018Z 02004KT 05/05 A3028 RMK A01 T00490046  RH  098%=      5-min Rain = 0
KSE2 091019Z 02004KT 05/05 A3028 RMK A01 T00490046  RH  098%=      5-min Rain = 0
KSE2 091020Z 02004KT 05/05 A3028 RMK A01 T00500047  RH  098%=      5-min Rain = 0
KSE2 091021Z 02003KT 05/05 A3028 RMK A01 T00510048  RH  098%=      5-min Rain = 0
KSE2 091022Z 05003KT 05/05 A3028 RMK A01 T00510048  RH  098%=      5-min Rain = 0
KSE2 091023Z 05004KT 05/05 A3028 RMK A01 T00510048  RH  098%=      5-min Rain = 0
KSE2 091024Z 05003KT 05/05 A3028 RMK A01 T00510047  RH  098%=      5-min Rain = 0
KSE2 091025Z 05003KT 05/05 A3028 RMK A01 T00500047  RH  098%=      5-min Rain = 0
KSE2 091026Z 04002KT 05/05 A3028 RMK A01 T00500047  RH  098%=      5-min Rain = 0
KSE2 091027Z 05002KT 05/05 A3028 RMK A01 T00500047  RH  098%=      5-min Rain = 0
KSE2 091028Z 06002KT 05/05 A3028 RMK A01 T00500047  RH  098%=      5-min Rain = 0
KSE2 091029Z 06002KT 05/05 A3028 RMK A01 T00500046  RH  098%=      5-min Rain = 0
KSE2 091030Z 06002KT 05/05 A3028 RMK A01 T00500046  RH  098%=      5-min Rain = 0
KSE2 091031Z 06002KT 05/05 A3028 RMK A01 T00490046  RH  098%=      5-min Rain = 0
KSE2 091032Z 07002KT 05/05 A3028 RMK A01 T00490046  RH  098%=      5-min Rain = 0
KSE2 091033Z 08002KT 05/05 A3028 RMK A01 T00490045  RH  098%=      5-min Rain = 0
KSE2 091034Z 06002KT 05/05 A3028 RMK A01 T00490045  RH  098%=      5-min Rain = 0
KSE2 091035Z 07002KT 05/04 A3028 RMK A01 T00470044  RH  098%=      5-min Rain = 0
KSE2 091036Z 07001KT 05/04 A3028 RMK A01 T00470043  RH  097%=      5-min Rain = 0
KSE2 091037Z 08001KT 05/04 A3028 RMK A01 T00460042  RH  097%=      5-min Rain = 0
KSE2 091038Z 10000KT 05/04 A3028 RMK A01 T00460042  RH  097%=      5-min Rain = 0
KSE2 091039Z 00000KT 05/04 A3028 RMK A01 T00460042  RH  097%=      5-min Rain = 0
KSE2 091040Z 00000KT 05/04 A3028 RMK A01 T00460042  RH  098%=      5-min Rain = 0
KSE2 091041Z 00000KT 05/04 A3028 RMK A01 T00450042  RH  098%=      5-min Rain = 0
KSE2 091042Z 00000KT 05/04 A3028 RMK A01 T00450041  RH  098%=      5-min Rain = 0
KSE2 091043Z 00000KT 05/04 A3028 RMK A01 T00450041  RH  098%=      5-min Rain = 0
KSE2 091044Z 00000KT 05/04 A3028 RMK A01 T00450041  RH  098%=      5-min Rain = 0
KSE2 091045Z 00000KT 05/04 A3028 RMK A01 T00450042  RH  098%=      5-min Rain = 0
KSE2 091046Z 26000KT 05/04 A3028 RMK A01 T00450042  RH  098%=      5-min Rain = 0
KSE2 091047Z 26000KT 05/04 A3028 RMK A01 T00450042  RH  098%=      5-min Rain = 0
KSE2 091048Z 26000KT 05/04 A3028 RMK A01 T00460042  RH  098%=      5-min Rain = 0
KSE2 091049Z 26002KT 05/04 A3028 RMK A01 T00460042  RH  098%=      5-min Rain = 0
KSE2 091050Z 25002KT 05/04 A3028 RMK A01 T00450042  RH  098%=      5-min Rain = 0
KSE2 091051Z 25002KT 05/04 A3028 RMK A01 T00450041  RH  098%=      5-min Rain = 0
KSE2 091052Z 25001KT 05/04 A3028 RMK A01 T00450041  RH  098%=      5-min Rain = 0
KSE2 091053Z 25000KT 04/04 A3028 RMK A01 T00440041  RH  098%=      5-min Rain = 0
KSE2 091054Z 00000KT 04/04 A3028 RMK A01 T00440041  RH  098%=      5-min Rain = 0
KSE2 091055Z 00000KT 04/04 A3028 RMK A01 T00440041  RH  098%=      5-min Rain = 0
KSE2 091056Z 00000KT 04/04 A3028 RMK A01 T00440040  RH  098%=      5-min Rain = 0
KSE2 091057Z 00000KT 04/04 A3028 RMK A01 T00440041  RH  098%=      5-min Rain = 0
KSE2 091058Z 25000KT 04/04 A3028 RMK A01 T00440041  RH  098%=      5-min Rain = 0
KSE2 091059Z 25001KT 04/04 A3028 RMK A01 T00440041  RH  098%=      5-min Rain = 0
KSE2 091100Z 25000KT 04/04 A3028 RMK A01 T00440041  RH  098%=      5-min Rain = 0
KSE2 091101Z 00000KT 04/04 A3028 RMK A01 T00440041  RH  098%=      5-min Rain = 0
KSE2 091102Z 00000KT 04/04 A3028 RMK A01 T00440041  RH  098%=      5-min Rain = 0
KSE2 091103Z 00000KT 04/04 A3028 RMK A01 T00440040  RH  098%=      5-min Rain = 0
KSE2 091104Z 25000KT 04/04 A3028 RMK A01 T00430040  RH  098%=      5-min Rain = 0
KSE2 091105Z 22001KT 04/04 A3028 RMK A01 T00430040  RH  098%=      5-min Rain = 0
KSE2 091106Z 21001KT 04/04 A3028 RMK A01 T00430040  RH  098%=      5-min Rain = 0
KSE2 091107Z 21001KT 04/04 A3028 RMK A01 T00420039  RH  098%=      5-min Rain = 0
KSE2 091108Z 21000KT 04/04 A3028 RMK A01 T00410038  RH  098%=      5-min Rain = 0
KSE2 091109Z 00000KT 04/04 A3028 RMK A01 T00410037  RH  098%=      5-min Rain = 0
KSE2 091110Z 00000KT 04/04 A3028 RMK A01 T00400037  RH  098%=      5-min Rain = 0
KSE2 091111Z 00000KT 04/04 A3028 RMK A01 T00400037  RH  098%=      5-min Rain = 0
KSE2 091112Z 22001KT 04/04 A3028 RMK A01 T00410037  RH  098%=      5-min Rain = 0
KSE2 091113Z 22001KT 04/04 A3029 RMK A01 T00410038  RH  098%=      5-min Rain = 0
KSE2 091114Z 22001KT 04/04 A3029 RMK A01 T00420038  RH  098%=      5-min Rain = 0
KSE2 091115Z 22001KT 04/04 A3029 RMK A01 T00420038  RH  098%=      5-min Rain = 0
KSE2 091116Z 22001KT 04/04 A3029 RMK A01 T00420038  RH  098%=      5-min Rain = 0
KSE2 091117Z 21001KT 04/04 A3029 RMK A01 T00420039  RH  098%=      5-min Rain = 0
KSE2 091118Z 21002KT 04/04 A3029 RMK A01 T00420039  RH  098%=      5-min Rain = 0
KSE2 091119Z 22002KT 04/04 A3029 RMK A01 T00420039  RH  098%=      5-min Rain = 0
KSE2 091120Z 22002KT 04/04 A3029 RMK A01 T00410038  RH  098%=      5-min Rain = 0
KSE2 091121Z 22002KT 04/04 A3029 RMK A01 T00420039  RH  098%=      5-min Rain = 0
KSE2 091122Z 21002KT 04/04 A3029 RMK A01 T00440041  RH  098%=      5-min Rain = 0
KSE2 091123Z 21003KT 05/04 A3029 RMK A01 T00450042  RH  098%=      5-min Rain = 0
KSE2 091124Z 20003KT 05/04 A3029 RMK A01 T00460043  RH  098%=      5-min Rain = 0
KSE2 091125Z 18003KT 05/04 A3029 RMK A01 T00470044  RH  098%=      5-min Rain = 0
KSE2 091126Z 18003KT 05/04 A3029 RMK A01 T00470044  RH  098%=      5-min Rain = 0
KSE2 091127Z 19003KT 05/04 A3029 RMK A01 T00460042  RH  098%=      5-min Rain = 0
KSE2 091128Z 19003KT 04/04 A3029 RMK A01 T00440041  RH  098%=      5-min Rain = 0
KSE2 091129Z 20003KT 04/04 A3029 RMK A01 T00440041  RH  098%=      5-min Rain = 0
KSE2 091130Z 20003KT 04/04 A3029 RMK A01 T00430040  RH  098%=      5-min Rain = 0
KSE2 091131Z 21003KT 04/04 A3029 RMK A01 T00430040  RH  098%=      5-min Rain = 0
KSE2 091132Z 21002KT 04/04 A3029 RMK A01 T00430040  RH  098%=      5-min Rain = 0
KSE2 091133Z 21002KT 04/04 A3029 RMK A01 T00430040  RH  098%=      5-min Rain = 0
KSE2 091134Z 21002KT 04/04 A3029 RMK A01 T00430040  RH  098%=      5-min Rain = 0
KSE2 091135Z 19002KT 04/04 A3029 RMK A01 T00430039  RH  098%=      5-min Rain = 0
KSE2 091136Z 18002KT 04/04 A3029 RMK A01 T00420039  RH  098%=      5-min Rain = 0
KSE2 091137Z 15001KT 04/04 A3028 RMK A01 T00420038  RH  098%=      5-min Rain = 0
KSE2 091138Z 13001KT 04/04 A3028 RMK A01 T00420038  RH  098%=      5-min Rain = 0
KSE2 091139Z 14001KT 04/04 A3028 RMK A01 T00410038  RH  098%=      5-min Rain = 0
KSE2 091140Z 16001KT 04/04 A3028 RMK A01 T00410038  RH  098%=      5-min Rain = 0
KSE2 091141Z 16000KT 04/04 A3028 RMK A01 T00410037  RH  098%=      5-min Rain = 0
KSE2 091142Z 16001KT 04/04 A3028 RMK A01 T00400037  RH  098%=      5-min Rain = 0
KSE2 091143Z 16001KT 04/04 A3028 RMK A01 T00400037  RH  098%=      5-min Rain = 0
KSE2 091144Z 17001KT 04/04 A3028 RMK A01 T00400037  RH  098%=      5-min Rain = 0
KSE2 091145Z 17002KT 04/04 A3028 RMK A01 T00400037  RH  098%=      5-min Rain = 0
KSE2 091146Z 17002KT 04/04 A3028 RMK A01 T00400037  RH  098%=      5-min Rain = 0
KSE2 091147Z 17002KT 04/04 A3028 RMK A01 T00400037  RH  098%=      5-min Rain = 0
KSE2 091148Z 17002KT 04/04 A3028 RMK A01 T00420039  RH  098%=      5-min Rain = 0
KSE2 091149Z 18003KT 04/04 A3028 RMK A01 T00440041  RH  098%=      5-min Rain = 0
KSE2 091150Z 18002KT 05/04 A3028 RMK A01 T00460043  RH  098%=      5-min Rain = 0
KSE2 091151Z 18002KT 05/04 A3028 RMK A01 T00460044  RH  098%=      5-min Rain = 0
KSE2 091152Z 18002KT 05/04 A3028 RMK A01 T00470044  RH  098%=      5-min Rain = 0
KSE2 091153Z 19002KT 05/05 A3028 RMK A01 T00470045  RH  098%=      5-min Rain = 0
KSE2 091154Z 19001KT 05/05 A3028 RMK A01 T00470045  RH  098%=      5-min Rain = 0
KSE2 091155Z 19001KT 05/04 A3028 RMK A01 T00470044  RH  098%=      5-min Rain = 0
KSE2 091156Z 19001KT 05/04 A3029 RMK A01 T00470044  RH  098%=      5-min Rain = 0
KSE2 091157Z 19002KT 05/04 A3029 RMK A01 T00460043  RH  098%=      5-min Rain = 0
KSE2 091158Z 20002KT 05/04 A3029 RMK A01 T00450042  RH  098%=      5-min Rain = 0
KSE2 091159Z 20002KT 05/04 A3029 RMK A01 T00450042  RH  098%=      5-min Rain = 0
KSE2 091200Z 20002KT 05/04 A3029 RMK A01 T00450042  RH  098%=      5-min Rain = 0
KSE2 091201Z 21003KT 05/04 A3029 RMK A01 T00460043  RH  098%=      5-min Rain = 0
KSE2 091202Z 22003KT 05/04 A3029 RMK A01 T00450043  RH  098%=      5-min Rain = 0
KSE2 091203Z 22003KT 05/04 A3029 RMK A01 T00470044  RH  098%=      5-min Rain = 0
KSE2 091204Z 22003KT 05/04 A3029 RMK A01 T00470044  RH  098%=      5-min Rain = 0
KSE2 091205Z 22003KT 05/04 A3029 RMK A01 T00470044  RH  098%=      5-min Rain = 0
KSE2 091206Z 22003KT 05/04 A3029 RMK A01 T00470044  RH  098%=      5-min Rain = 0
KSE2 091207Z 22004KT 05/04 A3029 RMK A01 T00470044  RH  098%=      5-min Rain = 0
KSE2 091208Z 22003KT 05/04 A3029 RMK A01 T00470044  RH  098%=      5-min Rain = 0
KSE2 091209Z 22003KT 05/04 A3029 RMK A01 T00470044  RH  098%=      5-min Rain = 0
KSE2 091210Z 22003KT 05/04 A3029 RMK A01 T00470044  RH  098%=      5-min Rain = 0
KSE2 091211Z 21003KT 05/04 A3029 RMK A01 T00470044  RH  098%=      5-min Rain = 0
KSE2 091212Z 21002KT 05/04 A3029 RMK A01 T00470044  RH  098%=      5-min Rain = 0
KSE2 091213Z 21002KT 05/04 A3029 RMK A01 T00470044  RH  098%=      5-min Rain = 0
KSE2 091214Z 22002KT 05/04 A3029 RMK A01 T00470044  RH  098%=      5-min Rain = 0
KSE2 091215Z 22002KT 05/04 A3029 RMK A01 T00470044  RH  098%=      5-min Rain = 0
KSE2 091216Z 21001KT 05/04 A3029 RMK A01 T00470044  RH  098%=      5-min Rain = 0
KSE2 091217Z 21001KT 05/04 A3029 RMK A01 T00470044  RH  098%=      5-min Rain = 0
KSE2 091218Z 21002KT 05/04 A3029 RMK A01 T00470044  RH  098%=      5-min Rain = 0
KSE2 091219Z 21002KT 05/04 A3029 RMK A01 T00470044  RH  098%=      5-min Rain = 0
KSE2 091220Z 21003KT 05/04 A3029 RMK A01 T00470044  RH  098%=      5-min Rain = 0
KSE2 091221Z 21003KT 05/04 A3029 RMK A01 T00470044  RH  098%=      5-min Rain = 0
KSE2 091222Z 21003KT 05/04 A3029 RMK A01 T00470044  RH  098%=      5-min Rain = 0
KSE2 091223Z 21003KT 05/04 A3029 RMK A01 T00470044  RH  098%=      5-min Rain = 0
KSE2 091224Z 21003KT 05/04 A3029 RMK A01 T00470044  RH  098%=      5-min Rain = 0
KSE2 091225Z 21003KT 05/04 A3029 RMK A01 T00470044  RH  098%=      5-min Rain = 0
KSE2 091226Z 22003KT 05/04 A3029 RMK A01 T00470044  RH  098%=      5-min Rain = 0
KSE2 091227Z 22003KT 05/04 A3029 RMK A01 T00470044  RH  098%=      5-min Rain = 0
KSE2 091228Z 23003KT 05/04 A3029 RMK A01 T00470044  RH  098%=      5-min Rain = 0
KSE2 091229Z 24002KT 05/04 A3029 RMK A01 T00470044  RH  098%=      5-min Rain = 0
KSE2 091230Z 24002KT 05/04 A3029 RMK A01 T00470044  RH  098%=      5-min Rain = 0
KSE2 091231Z 24002KT 05/04 A3029 RMK A01 T00470044  RH  098%=      5-min Rain = 0
KSE2 091232Z 24002KT 05/05 A3029 RMK A01 T00480045  RH  098%=      5-min Rain = 0
KSE2 091233Z 24002KT 05/05 A3029 RMK A01 T00480045  RH  098%=      5-min Rain = 0
KSE2 091234Z 23002KT 05/04 A3029 RMK A01 T00470044  RH  098%=      5-min Rain = 0
KSE2 091235Z 23002KT 05/04 A3029 RMK A01 T00470044  RH  098%=      5-min Rain = 0
KSE2 091236Z 23002KT 05/04 A3029 RMK A01 T00460043  RH  098%=      5-min Rain = 0
KSE2 091237Z 23002KT 05/04 A3029 RMK A01 T00450042  RH  098%=      5-min Rain = 0
KSE2 091238Z 22002KT 05/04 A3029 RMK A01 T00450042  RH  098%=      5-min Rain = 0
KSE2 091239Z 22003KT 05/04 A3029 RMK A01 T00450042  RH  098%=      5-min Rain = 0
KSE2 091240Z 22003KT 05/04 A3029 RMK A01 T00460043  RH  098%=      5-min Rain = 0
KSE2 091241Z 22003KT 05/04 A3029 RMK A01 T00460043  RH  098%=      5-min Rain = 0
KSE2 091242Z 22003KT 05/04 A3029 RMK A01 T00460043  RH  098%=      5-min Rain = 0
KSE2 091243Z 22003KT 05/04 A3029 RMK A01 T00460043  RH  098%=      5-min Rain = 0
KSE2 091244Z 22003KT 05/04 A3029 RMK A01 T00460043  RH  098%=      5-min Rain = 0
KSE2 091245Z 22003KT 05/04 A3029 RMK A01 T00460044  RH  098%=      5-min Rain = 0
KSE2 091246Z 21004KT 05/04 A3029 RMK A01 T00460043  RH  098%=      5-min Rain = 0
KSE2 091247Z 22004KT 05/04 A3029 RMK A01 T00460043  RH  098%=      5-min Rain = 0
KSE2 091248Z 21004KT 05/04 A3029 RMK A01 T00470044  RH  098%=      5-min Rain = 0
KSE2 091249Z 22004KT 05/04 A3029 RMK A01 T00460043  RH  098%=      5-min Rain = 0
KSE2 091250Z 22004KT 05/04 A3029 RMK A01 T00460044  RH  098%=      5-min Rain = 0
KSE2 091251Z 22004KT 05/04 A3029 RMK A01 T00470044  RH  098%=      5-min Rain = 0
KSE2 091252Z 22004KT 05/04 A3029 RMK A01 T00470044  RH  098%=      5-min Rain = 0
KSE2 091253Z 21004KT 05/05 A3029 RMK A01 T00480045  RH  098%=      5-min Rain = 0
KSE2 091254Z 21004KT 05/05 A3029 RMK A01 T00500047  RH  098%=      5-min Rain = 0
KSE2 091255Z 21005KT 05/05 A3029 RMK A01 T00510049  RH  098%=      5-min Rain = 0
KSE2 091256Z 21005KT 05/05 A303 RMK A01 T00520050  RH  098%=      5-min Rain = 0
KSE2 091257Z 20005KT 05/05 A303 RMK A01 T00530050  RH  098%=      5-min Rain = 0
KSE2 091258Z 21005KT 05/05 A303 RMK A01 T00530050  RH  098%=      5-min Rain = 0
KSE2 091259Z 21004KT 05/05 A303 RMK A01 T00530050  RH  098%=      5-min Rain = 0
KSE2 091300Z 20004KT 05/05 A3029 RMK A01 T00530050  RH  098%=      5-min Rain = 0
KSE2 091301Z 20004KT 05/05 A3029 RMK A01 T00530050  RH  098%=      5-min Rain = 0
KSE2 091302Z 21005KT 05/05 A3029 RMK A01 T00530050  RH  098%=      5-min Rain = 0
KSE2 091303Z 21005KT 05/05 A303 RMK A01 T00530050  RH  098%=      5-min Rain = 0
KSE2 091304Z 21004KT 05/05 A303 RMK A01 T00530050  RH  098%=      5-min Rain = 0
KSE2 091305Z 21004KT 05/05 A303 RMK A01 T00540051  RH  098%=      5-min Rain = 0
KSE2 091306Z 21004KT 06/05 A303 RMK A01 T00550052  RH  098%=      5-min Rain = 0
KSE2 091307Z 21004KT 06/05 A303 RMK A01 T00550052  RH  098%=      5-min Rain = 0
KSE2 091308Z 21005KT 06/05 A303 RMK A01 T00550052  RH  098%=      5-min Rain = 0
KSE2 091309Z 21005KT 06/05 A303 RMK A01 T00550052  RH  098%=      5-min Rain = 0
KSE2 091310Z 21005KT 06/05 A3029 RMK A01 T00560053  RH  098%=      5-min Rain = 0
KSE2 091311Z 21005KT 06/05 A3029 RMK A01 T00560053  RH  098%=      5-min Rain = 0
KSE2 091312Z 21005KT 06/05 A3029 RMK A01 T00570053  RH  098%=      5-min Rain = 0
KSE2 091313Z 21006KT 06/05 A3029 RMK A01 T00570054  RH  098%=      5-min Rain = 0
KSE2 091314Z 21006KT 06/05 A3029 RMK A01 T00580054  RH  098%=      5-min Rain = 0
KSE2 091315Z 21005KT 06/05 A3029 RMK A01 T00580054  RH  098%=      5-min Rain = 0
KSE2 091316Z 21005KT 06/06 A303 RMK A01 T00590055  RH  097%=      5-min Rain = 0
KSE2 091317Z 22005KT 06/06 A303 RMK A01 T00590056  RH  097%=      5-min Rain = 0
KSE2 091318Z 22005KT 06/06 A303 RMK A01 T00600056  RH  097%=      5-min Rain = 0
KSE2 091319Z 22005KT 06/06 A303 RMK A01 T00610056  RH  097%=      5-min Rain = 0
KSE2 091320Z 21005KT 06/06 A303 RMK A01 T00610057  RH  097%=      5-min Rain = 0
KSE2 091321Z 21005KT 06/06 A303 RMK A01 T00610057  RH  097%=      5-min Rain = 0
KSE2 091322Z 21005KT 06/06 A3029 RMK A01 T00620057  RH  097%=      5-min Rain = 0
KSE2 091323Z 21005KT 06/06 A3029 RMK A01 T00620057  RH  096%=      5-min Rain = 0
KSE2 091324Z 21005KT 06/06 A3029 RMK A01 T00630057  RH  096%=      5-min Rain = 0
KSE2 091325Z 21005KT 06/06 A3029 RMK A01 T00630057  RH  096%=      5-min Rain = 0
KSE2 091326Z 21004KT 06/06 A3029 RMK A01 T00630057  RH  096%=      5-min Rain = 0
KSE2 091327Z 22004KT 06/06 A3029 RMK A01 T00640058  RH  096%=      5-min Rain = 0
KSE2 091328Z 22004KT 06/06 A3029 RMK A01 T00640058  RH  096%=      5-min Rain = 0
KSE2 091329Z 22003KT 07/06 A3029 RMK A01 T00650058  RH  096%=      5-min Rain = 0
KSE2 091330Z 22003KT 07/06 A3029 RMK A01 T00660059  RH  096%=      5-min Rain = 0
KSE2 091331Z 21003KT 07/06 A3029 RMK A01 T00660060  RH  095%=      5-min Rain = 0
KSE2 091332Z 21003KT 07/06 A303 RMK A01 T00670060  RH  095%=      5-min Rain = 0
KSE2 091333Z 21004KT 07/06 A303 RMK A01 T00680061  RH  095%=      5-min Rain = 0
KSE2 091334Z 20003KT 07/06 A303 RMK A01 T00690061  RH  095%=      5-min Rain = 0
KSE2 091335Z 20003KT 07/06 A303 RMK A01 T00700063  RH  095%=      5-min Rain = 0
KSE2 091336Z 20004KT 07/06 A303 RMK A01 T00710064  RH  095%=      5-min Rain = 0
KSE2 091337Z 20003KT 07/06 A303 RMK A01 T00720063  RH  095%=      5-min Rain = 0
KSE2 091338Z 20003KT 07/06 A303 RMK A01 T00720063  RH  094%=      5-min Rain = 0
KSE2 091339Z 19003KT 07/06 A303 RMK A01 T00730063  RH  094%=      5-min Rain = 0
KSE2 091340Z 19003KT 07/06 A303 RMK A01 T00730063  RH  094%=      5-min Rain = 0
KSE2 091341Z 19003KT 07/06 A303 RMK A01 T00730063  RH  093%=      5-min Rain = 0
KSE2 091342Z 18003KT 07/06 A303 RMK A01 T00730062  RH  093%=      5-min Rain = 0
KSE2 091343Z 18004KT 08/06 A303 RMK A01 T00750064  RH  093%=      5-min Rain = 0
KSE2 091344Z 18003KT 08/06 A303 RMK A01 T00750064  RH  093%=      5-min Rain = 0
KSE2 091345Z 18003KT 08/06 A303 RMK A01 T00750062  RH  092%=      5-min Rain = 0
KSE2 091346Z 18003KT 07/06 A303 RMK A01 T00740062  RH  092%=      5-min Rain = 0
KSE2 091347Z 17003KT 07/06 A303 RMK A01 T00740062  RH  092%=      5-min Rain = 0
KSE2 091348Z 17003KT 07/06 A303 RMK A01 T00740062  RH  092%=      5-min Rain = 0
KSE2 091349Z 16003KT 07/06 A303 RMK A01 T00740062  RH  092%=      5-min Rain = 0
KSE2 091350Z 16003KT 07/06 A303 RMK A01 T00740062  RH  092%=      5-min Rain = 0
KSE2 091351Z 16003KT 07/06 A303 RMK A01 T00740062  RH  092%=      5-min Rain = 0
KSE2 091352Z 17003KT 07/06 A303 RMK A01 T00740061  RH  092%=      5-min Rain = 0
KSE2 091353Z 17004KT 07/06 A303 RMK A01 T00730061  RH  092%=      5-min Rain = 0
KSE2 091354Z 16004KT 07/06 A3029 RMK A01 T00730060  RH  092%=      5-min Rain = 0
KSE2 091355Z 16004KT 07/06 A3029 RMK A01 T00720060  RH  092%=      5-min Rain = 0
KSE2 091356Z 16004KT 07/06 A3029 RMK A01 T00720060  RH  092%=      5-min Rain = 0
KSE2 091357Z 17004KT 07/06 A3029 RMK A01 T00720060  RH  092%=      5-min Rain = 0
KSE2 091358Z 17004KT 07/06 A3029 RMK A01 T00710059  RH  092%=      5-min Rain = 0
KSE2 091359Z 18004KT 07/06 A3029 RMK A01 T00710059  RH  092%=      5-min Rain = 0
KSE2 091400Z 18004KT 07/06 A303 RMK A01 T00700059  RH  092%=      5-min Rain = 0
KSE2 091401Z 17003KT 07/06 A303 RMK A01 T00710060  RH  093%=      5-min Rain = 0
KSE2 091402Z 18003KT 07/06 A303 RMK A01 T00700059  RH  093%=      5-min Rain = 0
KSE2 091403Z 18003KT 07/06 A303 RMK A01 T00700059  RH  092%=      5-min Rain = 0
KSE2 091404Z 19003KT 07/06 A303 RMK A01 T00700058  RH  093%=      5-min Rain = 0
KSE2 091405Z 19003KT 07/06 A303 RMK A01 T00690058  RH  093%=      5-min Rain = 0
KSE2 091406Z 18003KT 07/06 A303 RMK A01 T00690058  RH  093%=      5-min Rain = 0
KSE2 091407Z 18003KT 07/06 A303 RMK A01 T00690058  RH  093%=      5-min Rain = 0
KSE2 091408Z 19003KT 07/06 A303 RMK A01 T00700059  RH  093%=      5-min Rain = 0
KSE2 091409Z 18003KT 07/06 A303 RMK A01 T00710060  RH  093%=      5-min Rain = 0
KSE2 091410Z 17003KT 07/06 A303 RMK A01 T00720061  RH  093%=      5-min Rain = 0
KSE2 091411Z 18002KT 07/06 A303 RMK A01 T00740064  RH  093%=      5-min Rain = 0
KSE2 091412Z 19003KT 08/06 A303 RMK A01 T00750064  RH  093%=      5-min Rain = 0
KSE2 091413Z 19003KT 08/06 A303 RMK A01 T00750063  RH  092%=      5-min Rain = 0
KSE2 091414Z 19003KT 08/07 A303 RMK A01 T00760065  RH  092%=      5-min Rain = 0
KSE2 091415Z 19003KT 08/07 A303 RMK A01 T00770065  RH  092%=      5-min Rain = 0
KSE2 091416Z 18003KT 08/07 A303 RMK A01 T00780065  RH  091%=      5-min Rain = 0
KSE2 091417Z 18003KT 08/07 A303 RMK A01 T00790066  RH  092%=      5-min Rain = 0
KSE2 091418Z 18002KT 08/07 A303 RMK A01 T00790066  RH  091%=      5-min Rain = 0
KSE2 091419Z 17003KT 08/07 A303 RMK A01 T00800066  RH  090%=      5-min Rain = 0
KSE2 091420Z 18002KT 08/07 A303 RMK A01 T00810066  RH  090%=      5-min Rain = 0
KSE2 091421Z 16002KT 08/07 A303 RMK A01 T00820067  RH  090%=      5-min Rain = 0
KSE2 091422Z 15002KT 08/07 A303 RMK A01 T00840069  RH  090%=      5-min Rain = 0
KSE2 091423Z 16003KT 08/07 A3031 RMK A01 T00840066  RH  088%=      5-min Rain = 0
KSE2 091424Z 17003KT 08/06 A3031 RMK A01 T00840064  RH  087%=      5-min Rain = 0
KSE2 091425Z 16002KT 08/07 A3031 RMK A01 T00840065  RH  088%=      5-min Rain = 0
KSE2 091426Z 16001KT 09/07 A3031 RMK A01 T00850066  RH  088%=      5-min Rain = 0
KSE2 091427Z 15003KT 09/07 A3031 RMK A01 T00860067  RH  088%=      5-min Rain = 0
KSE2 091428Z 16003KT 09/07 A3031 RMK A01 T00860067  RH  088%=      5-min Rain = 0
KSE2 091429Z 16003KT 09/07 A3031 RMK A01 T00860067  RH  088%=      5-min Rain = 0
KSE2 091430Z 17002KT 09/07 A3031 RMK A01 T00870068  RH  088%=      5-min Rain = 0
KSE2 091431Z 16003KT 09/07 A3031 RMK A01 T00880069  RH  088%=      5-min Rain = 0
KSE2 091432Z 15002KT 09/07 A3031 RMK A01 T00890069  RH  088%=      5-min Rain = 0
KSE2 091433Z 15003KT 09/07 A3031 RMK A01 T00900069  RH  087%=      5-min Rain = 0
KSE2 091434Z 15003KT 09/07 A3031 RMK A01 T00890067  RH  086%=      5-min Rain = 0
KSE2 091435Z 15003KT 09/07 A3031 RMK A01 T00890067  RH  086%=      5-min Rain = 0
KSE2 091436Z 15002KT 09/07 A3031 RMK A01 T00890067  RH  086%=      5-min Rain = 0
KSE2 091437Z 13002KT 09/07 A3031 RMK A01 T00900070  RH  087%=      5-min Rain = 0
KSE2 091438Z 16003KT 09/07 A3031 RMK A01 T00900070  RH  087%=      5-min Rain = 0
KSE2 091439Z 16002KT 09/07 A3031 RMK A01 T00900070  RH  087%=      5-min Rain = 0
KSE2 091440Z 18002KT 09/07 A3031 RMK A01 T00910070  RH  087%=      5-min Rain = 0
KSE2 091441Z 18002KT 09/07 A3031 RMK A01 T00920073  RH  088%=      5-min Rain = 0
KSE2 091442Z 18004KT 09/07 A3031 RMK A01 T00930074  RH  088%=      5-min Rain = 0
KSE2 091443Z 17004KT 09/07 A3031 RMK A01 T00940074  RH  087%=      5-min Rain = 0
KSE2 091444Z 18004KT 09/07 A3031 RMK A01 T00940074  RH  087%=      5-min Rain = 0
KSE2 091445Z 18004KT 10/07 A3031 RMK A01 T00950074  RH  087%=      5-min Rain = 0
KSE2 091446Z 16003KT 10/07 A3031 RMK A01 T00950074  RH  087%=      5-min Rain = 0
KSE2 091447Z 16002KT 10/08 A3031 RMK A01 T00960077  RH  088%=      5-min Rain = 0
KSE2 091448Z 17003KT 10/08 A3031 RMK A01 T00970078  RH  088%=      5-min Rain = 0
KSE2 091449Z 18004KT 10/08 A3031 RMK A01 T00980077  RH  087%=      5-min Rain = 0
KSE2 091450Z 18004KT 10/07 A3031 RMK A01 T00970074  RH  086%=      5-min Rain = 0
KSE2 091451Z 17002KT 10/08 A3031 RMK A01 T00960075  RH  087%=      5-min Rain = 0
KSE2 091452Z 18003KT 10/08 A3031 RMK A01 T00980079  RH  088%=      5-min Rain = 0
KSE2 091453Z 17003KT 10/08 A3031 RMK A01 T00990077  RH  086%=      5-min Rain = 0
KSE2 091454Z 16004KT 10/08 A3031 RMK A01 T00990077  RH  086%=      5-min Rain = 0
KSE2 091455Z 19003KT 10/08 A3031 RMK A01 T00990076  RH  086%=      5-min Rain = 0
KSE2 091456Z 19003KT 10/08 A3031 RMK A01 T00990077  RH  086%=      5-min Rain = 0
KSE2 091457Z 16003KT 10/08 A3031 RMK A01 T00990077  RH  087%=      5-min Rain = 0
KSE2 091458Z 16003KT 10/08 A3031 RMK A01 T01000082  RH  089%=      5-min Rain = 0
KSE2 091459Z 15003KT 10/08 A3031 RMK A01 T01010081  RH  087%=      5-min Rain = 0
KSE2 091500Z 16005KT 10/08 A3031 RMK A01 T01010080  RH  087%=      5-min Rain = 0
KSE2 091501Z 18003KT 10/08 A3031 RMK A01 T01020081  RH  087%=      5-min Rain = 0
KSE2 091502Z 20003KT 10/08 A3031 RMK A01 T01020080  RH  086%=      5-min Rain = 0
KSE2 091503Z 21003KT 10/08 A3031 RMK A01 T01020080  RH  087%=      5-min Rain = 0
KSE2 091504Z 16003KT 10/08 A3031 RMK A01 T01020082  RH  088%=      5-min Rain = 0
KSE2 091505Z 17003KT 10/08 A3031 RMK A01 T01020083  RH  088%=      5-min Rain = 0
KSE2 091506Z 17003KT 10/08 A3031 RMK A01 T01040084  RH  087%=      5-min Rain = 0
KSE2 091507Z 20003KT 11/09 A3031 RMK A01 T01060085  RH  087%=      5-min Rain = 0
KSE2 091508Z 20003KT 11/08 A3031 RMK A01 T01060084  RH  086%=      5-min Rain = 0
KSE2 091509Z 17003KT 11/09 A3031 RMK A01 T01060085  RH  087%=      5-min Rain = 0
KSE2 091510Z 18003KT 11/09 A3031 RMK A01 T01070086  RH  087%=      5-min Rain = 0
KSE2 091511Z 20003KT 11/09 A3031 RMK A01 T01080086  RH  086%=      5-min Rain = 0
KSE2 091512Z 22003KT 11/09 A3031 RMK A01 T01090087  RH  086%=      5-min Rain = 0
KSE2 091513Z 21004KT 11/09 A3031 RMK A01 T01100086  RH  085%=      5-min Rain = 0
KSE2 091514Z 22003KT 11/08 A3031 RMK A01 T01090084  RH  085%=      5-min Rain = 0
KSE2 091515Z 22002KT 11/09 A3031 RMK A01 T01100086  RH  085%=      5-min Rain = 0
KSE2 091516Z 21002KT 11/09 A3031 RMK A01 T01110086  RH  085%=      5-min Rain = 0
KSE2 091517Z 22001KT 11/09 A3031 RMK A01 T01120088  RH  085%=      5-min Rain = 0
KSE2 091518Z 21001KT 11/09 A3031 RMK A01 T01140091  RH  085%=      5-min Rain = 0
KSE2 091519Z 18002KT 12/09 A3031 RMK A01 T01160091  RH  084%=      5-min Rain = 0
KSE2 091520Z 18002KT 12/09 A3031 RMK A01 T01180092  RH  084%=      5-min Rain = 0
KSE2 091521Z 19003KT 12/09 A3031 RMK A01 T01200093  RH  083%=      5-min Rain = 0
KSE2 091522Z 20004KT 12/09 A3031 RMK A01 T01210091  RH  082%=      5-min Rain = 0
KSE2 091523Z 21002KT 12/09 A303 RMK A01 T01200089  RH  081%=      5-min Rain = 0
KSE2 091524Z 18002KT 12/09 A303 RMK A01 T01190090  RH  082%=      5-min Rain = 0
KSE2 091525Z 19001KT 12/09 A303 RMK A01 T01190090  RH  082%=      5-min Rain = 0
KSE2 091526Z 19003KT 12/09 A303 RMK A01 T01210091  RH  082%=      5-min Rain = 0
KSE2 091527Z 19003KT 12/09 A303 RMK A01 T01220089  RH  080%=      5-min Rain = 0
KSE2 091528Z 21002KT 12/09 A303 RMK A01 T01220090  RH  081%=      5-min Rain = 0
KSE2 091529Z 24002KT 12/09 A303 RMK A01 T01230092  RH  081%=      5-min Rain = 0
KSE2 091530Z 23003KT 12/09 A3031 RMK A01 T01230091  RH  081%=      5-min Rain = 0
KSE2 091531Z 22002KT 12/09 A3031 RMK A01 T01230092  RH  081%=      5-min Rain = 0
KSE2 091532Z 28002KT 13/09 A3031 RMK A01 T01250093  RH  081%=      5-min Rain = 0
KSE2 091533Z 29001KT 13/09 A3031 RMK A01 T01250092  RH  080%=      5-min Rain = 0
KSE2 091534Z 12000KT 13/10 A3031 RMK A01 T01250095  RH  082%=      5-min Rain = 0
KSE2 091535Z 19002KT 13/10 A3031 RMK A01 T01280097  RH  081%=      5-min Rain = 0
KSE2 091536Z 20003KT 13/10 A3031 RMK A01 T01300095  RH  080%=      5-min Rain = 0
KSE2 091537Z 25003KT 13/10 A3031 RMK A01 T01290096  RH  080%=      5-min Rain = 0
KSE2 091538Z 25002KT 13/09 A3031 RMK A01 T01280093  RH  079%=      5-min Rain = 0
KSE2 091539Z 25000KT 13/10 A3031 RMK A01 T01270095  RH  081%=      5-min Rain = 0
KSE2 091540Z 24000KT 13/10 A3031 RMK A01 T01290097  RH  081%=      5-min Rain = 0
KSE2 091541Z 23002KT 13/10 A3031 RMK A01 T01300096  RH  080%=      5-min Rain = 0
KSE2 091542Z 19002KT 13/10 A3031 RMK A01 T01300095  RH  079%=      5-min Rain = 0
KSE2 091543Z 20003KT 13/10 A3031 RMK A01 T01300095  RH  080%=      5-min Rain = 0
KSE2 091544Z 19004KT 13/10 A3031 RMK A01 T01300098  RH  080%=      5-min Rain = 0
KSE2 091545Z 19004KT 13/10 A3031 RMK A01 T01320098  RH  080%=      5-min Rain = 0
KSE2 091546Z 20002KT 13/10 A3031 RMK A01 T01320097  RH  079%=      5-min Rain = 0
KSE2 091547Z 19002KT 13/10 A3031 RMK A01 T01320097  RH  079%=      5-min Rain = 0
KSE2 091548Z 20004KT 13/10 A3031 RMK A01 T01320097  RH  080%=      5-min Rain = 0
KSE2 091549Z 23003KT 13/10 A3031 RMK A01 T01320098  RH  080%=      5-min Rain = 0
KSE2 091550Z 24003KT 13/10 A3031 RMK A01 T01330100  RH  080%=      5-min Rain = 0
KSE2 091551Z 21003KT 13/10 A3031 RMK A01 T01340101  RH  080%=      5-min Rain = 0
KSE2 091552Z 22001KT 14/10 A3031 RMK A01 T01350101  RH  080%=      5-min Rain = 0
KSE2 091553Z 23002KT 14/10 A3031 RMK A01 T01360100  RH  079%=      5-min Rain = 0
KSE2 091554Z 21005KT 14/10 A3031 RMK A01 T01370101  RH  079%=      5-min Rain = 0
KSE2 091555Z 23005KT 14/10 A3031 RMK A01 T01380102  RH  079%=      5-min Rain = 0
KSE2 091556Z 22004KT 14/10 A3031 RMK A01 T01390101  RH  078%=      5-min Rain = 0
KSE2 091557Z 20003KT 14/10 A3031 RMK A01 T01390102  RH  078%=      5-min Rain = 0
KSE2 091558Z 24004KT 14/11 A3031 RMK A01 T01410105  RH  079%=      5-min Rain = 0
KSE2 091559Z 24004KT 14/10 A3031 RMK A01 T01420101  RH  076%=      5-min Rain = 0
KSE2 091600Z 26004KT 14/10 A3031 RMK A01 T01400102  RH  078%=      5-min Rain = 0
KSE2 091601Z 21004KT 14/10 A3031 RMK A01 T01400102  RH  078%=      5-min Rain = 0
KSE2 091602Z 20005KT 14/10 A3031 RMK A01 T01400103  RH  078%=      5-min Rain = 0
KSE2 091603Z 21006KT 14/10 A3031 RMK A01 T01410102  RH  077%=      5-min Rain = 0
KSE2 091604Z 24006KT 14/10 A3031 RMK A01 T01420102  RH  077%=      5-min Rain = 0
KSE2 091605Z 24005KT 14/10 A3031 RMK A01 T01420102  RH  077%=      5-min Rain = 0
KSE2 091606Z 25004KT 14/10 A3031 RMK A01 T01410100  RH  076%=      5-min Rain = 0
KSE2 091607Z 23006KT 14/10 A3031 RMK A01 T01400103  RH  078%=      5-min Rain = 0
KSE2 091608Z 23007KT 14/10 A3031 RMK A01 T01420102  RH  077%=      5-min Rain = 0
KSE2 091609Z 22005KT 14/10 A3031 RMK A01 T01420103  RH  077%=      5-min Rain = 0
KSE2 091610Z 22005KT 14/10 A3031 RMK A01 T01420102  RH  077%=      5-min Rain = 0
KSE2 091611Z 23005KT 14/10 A3031 RMK A01 T01420102  RH  077%=      5-min Rain = 0
KSE2 091612Z 24005KT 14/10 A3031 RMK A01 T01420103  RH  077%=      5-min Rain = 0
KSE2 091613Z 23004KT 14/10 A3031 RMK A01 T01420102  RH  077%=      5-min Rain = 0
KSE2 091614Z 20006KT 14/10 A3031 RMK A01 T01420104  RH  077%=      5-min Rain = 0
KSE2 091615Z 20003KT 14/11 A3031 RMK A01 T01440105  RH  077%=      5-min Rain = 0
KSE2 091616Z 21006KT 15/11 A3031 RMK A01 T01460105  RH  077%=      5-min Rain = 0
KSE2 091617Z 21004KT 15/10 A3031 RMK A01 T01460103  RH  076%=      5-min Rain = 0
KSE2 091618Z 21004KT 15/11 A3031 RMK A01 T01450107  RH  078%=      5-min Rain = 0
KSE2 091619Z 23006KT 15/11 A3032 RMK A01 T01470106  RH  076%=      5-min Rain = 0
KSE2 091620Z 23004KT 15/10 A3032 RMK A01 T01470104  RH  075%=      5-min Rain = 0
KSE2 091621Z 24004KT 15/11 A3031 RMK A01 T01470106  RH  076%=      5-min Rain = 0
KSE2 091622Z 22004KT 15/11 A3031 RMK A01 T01470106  RH  076%=      5-min Rain = 0
KSE2 091623Z 24007KT 15/11 A3031 RMK A01 T01490108  RH  076%=      5-min Rain = 0
KSE2 091624Z 24007KT 15/10 A3031 RMK A01 T01490104  RH  074%=      5-min Rain = 0
KSE2 091625Z 23007KT 15/10 A3031 RMK A01 T01460102  RH  075%=      5-min Rain = 0
KSE2 091626Z 25007KT 14/10 A3031 RMK A01 T01440102  RH  076%=      5-min Rain = 0
KSE2 091627Z 23006KT 14/10 A3031 RMK A01 T01430102  RH  076%=      5-min Rain = 0
KSE2 091628Z 22005KT 14/10 A3031 RMK A01 T01430102  RH  076%=      5-min Rain = 0
KSE2 091629Z 21006KT 14/10 A3031 RMK A01 T01430101  RH  076%=      5-min Rain = 0
KSE2 091630Z 25004KT 14/10 A3031 RMK A01 T01440103  RH  076%=      5-min Rain = 0
KSE2 091631Z 24006KT 15/10 A3031 RMK A01 T01460104  RH  076%=      5-min Rain = 0
KSE2 091632Z 24006KT 15/10 A3031 RMK A01 T01470102  RH  074%=      5-min Rain = 0
KSE2 091633Z 25004KT 15/10 A3031 RMK A01 T01450101  RH  075%=      5-min Rain = 0
KSE2 091634Z 25005KT 15/10 A3031 RMK A01 T01450102  RH  075%=      5-min Rain = 0
KSE2 091635Z 25005KT 15/10 A3031 RMK A01 T01460103  RH  075%=      5-min Rain = 0
KSE2 091636Z 23004KT 15/10 A3031 RMK A01 T01470104  RH  075%=      5-min Rain = 0
KSE2 091637Z 22004KT 15/10 A3031 RMK A01 T01480104  RH  075%=      5-min Rain = 0
KSE2 091638Z 20007KT 15/10 A3031 RMK A01 T01500104  RH  074%=      5-min Rain = 0
KSE2 091639Z 24007KT 15/11 A3031 RMK A01 T01520107  RH  075%=      5-min Rain = 0
KSE2 091640Z 25004KT 15/10 A3031 RMK A01 T01520103  RH  072%=      5-min Rain = 0
KSE2 091641Z 23004KT 15/10 A3031 RMK A01 T01490100  RH  072%=      5-min Rain = 0
KSE2 091642Z 23005KT 15/10 A3031 RMK A01 T01490104  RH  075%=      5-min Rain = 0
KSE2 091643Z 23004KT 15/11 A3031 RMK A01 T01510106  RH  075%=      5-min Rain = 0
KSE2 091644Z 24005KT 15/11 A3031 RMK A01 T01530105  RH  073%=      5-min Rain = 0
KSE2 091645Z 23006KT 15/11 A3031 RMK A01 T01520106  RH  074%=      5-min Rain = 0
KSE2 091646Z 22007KT 15/11 A3031 RMK A01 T01540106  RH  073%=      5-min Rain = 0
KSE2 091647Z 22007KT 15/11 A303 RMK A01 T01540105  RH  072%=      5-min Rain = 0
KSE2 091648Z 22005KT 15/10 A303 RMK A01 T01530104  RH  073%=      5-min Rain = 0
KSE2 091649Z 23005KT 15/10 A303 RMK A01 T01520104  RH  073%=      5-min Rain = 0
KSE2 091650Z 23005KT 15/10 A303 RMK A01 T01510103  RH  073%=      5-min Rain = 0
KSE2 091651Z 23007KT 15/10 A303 RMK A01 T01510104  RH  073%=      5-min Rain = 0
KSE2 091652Z 24006KT 15/10 A303 RMK A01 T01510104  RH  073%=      5-min Rain = 0
KSE2 091653Z 24006KT 15/11 A303 RMK A01 T01510105  RH  074%=      5-min Rain = 0
KSE2 091654Z 23005KT 15/11 A303 RMK A01 T01520109  RH  075%=      5-min Rain = 0
KSE2 091655Z 24009KT 16/11 A303 RMK A01 T01550108  RH  074%=      5-min Rain = 0
KSE2 091656Z 24008KT 16/11 A303 RMK A01 T01550106  RH  073%=      5-min Rain = 0
KSE2 091657Z 24006KT 15/11 A303 RMK A01 T01530108  RH  074%=      5-min Rain = 0
KSE2 091658Z 20004KT 16/11 A303 RMK A01 T01550111  RH  075%=      5-min Rain = 0
KSE2 091659Z 22003KT 16/11 A303 RMK A01 T01580113  RH  075%=      5-min Rain = 0
KSE2 091700Z 21002KT 16/11 A303 RMK A01 T01600113  RH  074%=      5-min Rain = 0
KSE2 091701Z 21003KT 16/11 A303 RMK A01 T01620112  RH  072%=      5-min Rain = 0
KSE2 091702Z 22005KT 16/11 A303 RMK A01 T01600109  RH  072%=      5-min Rain = 0
KSE2 091703Z 25006KT 16/11 A303 RMK A01 T01590109  RH  072%=      5-min Rain = 0
KSE2 091704Z 25006KT 16/11 A303 RMK A01 T01590111  RH  073%=      5-min Rain = 0
KSE2 091705Z 25006KT 16/11 A303 RMK A01 T01590111  RH  073%=      5-min Rain = 0
KSE2 091706Z 22004KT 16/11 A303 RMK A01 T01600112  RH  074%=      5-min Rain = 0
KSE2 091707Z 19006KT 16/11 A303 RMK A01 T01610114  RH  073%=      5-min Rain = 0
KSE2 091708Z 20005KT 16/11 A303 RMK A01 T01630114  RH  073%=      5-min Rain = 0
KSE2 091709Z 21006KT 16/12 A303 RMK A01 T01640115  RH  073%=      5-min Rain = 0
KSE2 091710Z 22007KT 16/11 A303 RMK A01 T01640111  RH  071%=      5-min Rain = 0
KSE2 091711Z 23006KT 16/11 A303 RMK A01 T01620112  RH  072%=      5-min Rain = 0
KSE2 091712Z 23007KT 16/11 A303 RMK A01 T01620113  RH  073%=      5-min Rain = 0
KSE2 091713Z 22008KT 16/12 A303 RMK A01 T01640115  RH  073%=      5-min Rain = 0
KSE2 091714Z 21007KT 17/11 A303 RMK A01 T01650114  RH  072%=      5-min Rain = 0
KSE2 091715Z 21007KT 17/11 A303 RMK A01 T01650112  RH  071%=      5-min Rain = 0
KSE2 091716Z 21006KT 16/11 A3029 RMK A01 T01640112  RH  071%=      5-min Rain = 0
KSE2 091717Z 22006KT 16/11 A3029 RMK A01 T01640111  RH  071%=      5-min Rain = 0
KSE2 091718Z 22007KT 16/11 A3029 RMK A01 T01630110  RH  071%=      5-min Rain = 0
KSE2 091719Z 24007KT 16/11 A3029 RMK A01 T01620110  RH  071%=      5-min Rain = 0
KSE2 091720Z 24006KT 16/11 A3029 RMK A01 T01630112  RH  071%=      5-min Rain = 0
KSE2 091721Z 24009KT 17/11 A3029 RMK A01 T01660114  RH  071%=      5-min Rain = 0
KSE2 091722Z 24008KT 17/11 A3029 RMK A01 T01670111  RH  069%=      5-min Rain = 0
KSE2 091723Z 24006KT 17/11 A3029 RMK A01 T01660114  RH  071%=      5-min Rain = 0
KSE2 091724Z 24008KT 17/12 A3029 RMK A01 T01690115  RH  070%=      5-min Rain = 0
KSE2 091725Z 24007KT 17/11 A3029 RMK A01 T01680112  RH  069%=      5-min Rain = 0
KSE2 091726Z 24007KT 17/11 A3029 RMK A01 T01670112  RH  070%=      5-min Rain = 0
KSE2 091727Z 24005KT 17/11 A3029 RMK A01 T01680112  RH  070%=      5-min Rain = 0
KSE2 091728Z 24008KT 17/11 A3029 RMK A01 T01670112  RH  070%=      5-min Rain = 0
KSE2 091729Z 23008KT 17/11 A3029 RMK A01 T01660109  RH  069%=      5-min Rain = 0
KSE2 091730Z 23008KT 17/11 A3029 RMK A01 T01650111  RH  070%=      5-min Rain = 0
KSE2 091731Z 24008KT 17/11 A3029 RMK A01 T01650111  RH  070%=      5-min Rain = 0
KSE2 091732Z 24010KT 17/11 A3029 RMK A01 T01660112  RH  070%=      5-min Rain = 0
KSE2 091733Z 24008KT 17/11 A3029 RMK A01 T01660111  RH  070%=      5-min Rain = 0
KSE2 091734Z 23006KT 17/11 A3029 RMK A01 T01650110  RH  070%=      5-min Rain = 0
KSE2 091735Z 23004KT 16/11 A3029 RMK A01 T01640109  RH  070%=      5-min Rain = 0
KSE2 091736Z 25007KT 16/11 A3029 RMK A01 T01640111  RH  071%=      5-min Rain = 0
KSE2 091737Z 24007KT 17/11 A3029 RMK A01 T01670114  RH  071%=      5-min Rain = 0
KSE2 091738Z 23007KT 17/11 A3029 RMK A01 T01690114  RH  070%=      5-min Rain = 0
KSE2 091739Z 25006KT 17/11 A3029 RMK A01 T01700113  RH  069%=      5-min Rain = 0
KSE2 091740Z 26006KT 17/11 A3029 RMK A01 T01700114  RH  069%=      5-min Rain = 0
KSE2 091741Z 25004KT 17/12 A3029 RMK A01 T01710115  RH  070%=      5-min Rain = 0
KSE2 091742Z 24007KT 17/12 A3029 RMK A01 T01730119  RH  070%=      5-min Rain = 0
KSE2 091743Z 25008KT 18/12 A3028 RMK A01 T01750116  RH  068%=      5-min Rain = 0
KSE2 091744Z 25006KT 18/12 A3028 RMK A01 T01750116  RH  068%=      5-min Rain = 0
KSE2 091745Z 25006KT 18/12 A3028 RMK A01 T01750115  RH  068%=      5-min Rain = 0
KSE2 091746Z 24006KT 17/11 A3028 RMK A01 T01720113  RH  068%=      5-min Rain = 0
KSE2 091747Z 25005KT 17/12 A3028 RMK A01 T01720118  RH  070%=      5-min Rain = 0
KSE2 091748Z 24006KT 18/12 A3028 RMK A01 T01750118  RH  069%=      5-min Rain = 0
KSE2 091749Z 23007KT 18/12 A3028 RMK A01 T01780117  RH  068%=      5-min Rain = 0
KSE2 091750Z 25006KT 18/12 A3028 RMK A01 T01770115  RH  067%=      5-min Rain = 0
KSE2 091751Z 25005KT 18/11 A3028 RMK A01 T01750114  RH  068%=      5-min Rain = 0
KSE2 091752Z 26007KT 18/12 A3028 RMK A01 T01750116  RH  068%=      5-min Rain = 0
KSE2 091753Z 26006KT 18/12 A3028 RMK A01 T01760117  RH  069%=      5-min Rain = 0
KSE2 091754Z 27004KT 18/12 A3028 RMK A01 T01780117  RH  068%=      5-min Rain = 0
KSE2 091755Z 25005KT 18/12 A3028 RMK A01 T01790116  RH  067%=      5-min Rain = 0
KSE2 091756Z 22006KT 18/12 A3028 RMK A01 T01780117  RH  067%=      5-min Rain = 0
KSE2 091757Z 20005KT 18/12 A3028 RMK A01 T01790115  RH  066%=      5-min Rain = 0
KSE2 091758Z 21005KT 18/12 A3028 RMK A01 T01780115  RH  067%=      5-min Rain = 0
KSE2 091759Z 20006KT 18/12 A3028 RMK A01 T01780116  RH  067%=      5-min Rain = 0
KSE2 091800Z 24004KT 18/12 A3028 RMK A01 T01790118  RH  067%=      5-min Rain = 0
KSE2 091801Z 24004KT 18/12 A3028 RMK A01 T01790115  RH  066%=      5-min Rain = 0
KSE2 091802Z 22004KT 18/12 A3028 RMK A01 T01790119  RH  068%=      5-min Rain = 0
KSE2 091803Z 20005KT 18/12 A3028 RMK A01 T01810118  RH  067%=      5-min Rain = 0
KSE2 091804Z 21005KT 18/12 A3028 RMK A01 T01810115  RH  065%=      5-min Rain = 0
KSE2 091805Z 24005KT 18/12 A3028 RMK A01 T01800117  RH  067%=      5-min Rain = 0
KSE2 091806Z 23005KT 18/12 A3028 RMK A01 T01800118  RH  067%=      5-min Rain = 0
KSE2 091807Z 21008KT 18/12 A3027 RMK A01 T01830119  RH  066%=      5-min Rain = 0
KSE2 091808Z 21005KT 18/12 A3027 RMK A01 T01830117  RH  065%=      5-min Rain = 0
KSE2 091809Z 22005KT 18/12 A3027 RMK A01 T01820116  RH  065%=      5-min Rain = 0
KSE2 091810Z 23004KT 18/12 A3027 RMK A01 T01820120  RH  067%=      5-min Rain = 0
KSE2 091811Z 24006KT 19/12 A3027 RMK A01 T01850122  RH  067%=      5-min Rain = 0
KSE2 091812Z 23008KT 19/12 A3027 RMK A01 T01870120  RH  065%=      5-min Rain = 0
KSE2 091813Z 22009KT 19/12 A3027 RMK A01 T01850115  RH  064%=      5-min Rain = 0
KSE2 091814Z 22008KT 18/11 A3027 RMK A01 T01820114  RH  064%=      5-min Rain = 0
KSE2 091815Z 21007KT 18/12 A3027 RMK A01 T01800116  RH  066%=      5-min Rain = 0
KSE2 091816Z 23007KT 18/12 A3027 RMK A01 T01810115  RH  065%=      5-min Rain = 0
KSE2 091817Z 24007KT 18/12 A3027 RMK A01 T01810115  RH  065%=      5-min Rain = 0
KSE2 091818Z 23007KT 18/12 A3027 RMK A01 T01810115  RH  065%=      5-min Rain = 0
KSE2 091819Z 23007KT 18/12 A3027 RMK A01 T01810117  RH  066%=      5-min Rain = 0
KSE2 091820Z 23006KT 18/12 A3027 RMK A01 T01820117  RH  066%=      5-min Rain = 0
KSE2 091821Z 23005KT 18/12 A3027 RMK A01 T01830117  RH  065%=      5-min Rain = 0
KSE2 091822Z 22007KT 18/12 A3027 RMK A01 T01840119  RH  066%=      5-min Rain = 0
KSE2 091823Z 23008KT 19/12 A3027 RMK A01 T01850116  RH  064%=      5-min Rain = 0
KSE2 091824Z 23005KT 18/12 A3027 RMK A01 T01830116  RH  065%=      5-min Rain = 0
KSE2 091825Z 22007KT 18/12 A3026 RMK A01 T01830116  RH  065%=      5-min Rain = 0
KSE2 091826Z 20007KT 19/12 A3026 RMK A01 T01850120  RH  066%=      5-min Rain = 0
KSE2 091827Z 23007KT 19/12 A3026 RMK A01 T01860118  RH  064%=      5-min Rain = 0
KSE2 091828Z 25006KT 19/12 A3026 RMK A01 T01850116  RH  064%=      5-min Rain = 0
KSE2 091829Z 23005KT 18/12 A3026 RMK A01 T01840120  RH  066%=      5-min Rain = 0
KSE2 091830Z 21007KT 19/12 A3026 RMK A01 T01870120  RH  065%=      5-min Rain = 0
KSE2 091831Z 21006KT 19/12 A3026 RMK A01 T01870119  RH  064%=      5-min Rain = 0
KSE2 091832Z 21006KT 19/12 A3026 RMK A01 T01860116  RH  064%=      5-min Rain = 0
KSE2 091833Z 23007KT 19/12 A3026 RMK A01 T01860120  RH  066%=      5-min Rain = 0
KSE2 091834Z 25008KT 19/12 A3026 RMK A01 T01870118  RH  064%=      5-min Rain = 0
KSE2 091835Z 24007KT 19/12 A3026 RMK A01 T01870121  RH  065%=      5-min Rain = 0
KSE2 091836Z 25005KT 19/12 A3026 RMK A01 T01880118  RH  064%=      5-min Rain = 0
KSE2 091837Z 27004KT 19/12 A3026 RMK A01 T01870119  RH  064%=      5-min Rain = 0
KSE2 091838Z 24004KT 19/12 A3026 RMK A01 T01870119  RH  064%=      5-min Rain = 0
KSE2 091839Z 22002KT 19/12 A3025 RMK A01 T01870118  RH  064%=      5-min Rain = 0
KSE2 091840Z 21004KT 19/12 A3025 RMK A01 T01870119  RH  065%=      5-min Rain = 0
KSE2 091841Z 20006KT 19/12 A3025 RMK A01 T01890121  RH  064%=      5-min Rain = 0
KSE2 091842Z 22005KT 19/12 A3025 RMK A01 T01900119  RH  064%=      5-min Rain = 0
KSE2 091843Z 22006KT 19/12 A3025 RMK A01 T01900120  RH  064%=      5-min Rain = 0
KSE2 091844Z 25005KT 19/12 A3025 RMK A01 T01900121  RH  064%=      5-min Rain = 0
KSE2 091845Z 24004KT 19/12 A3025 RMK A01 T01910120  RH  063%=      5-min Rain = 0
KSE2 091846Z 23005KT 19/12 A3025 RMK A01 T01900118  RH  063%=      5-min Rain = 0
KSE2 091847Z 24004KT 19/12 A3025 RMK A01 T01890119  RH  064%=      5-min Rain = 0
KSE2 091848Z 23004KT 19/12 A3025 RMK A01 T01890120  RH  064%=      5-min Rain = 0
KSE2 091849Z 24009KT 19/12 A3025 RMK A01 T01900121  RH  064%=      5-min Rain = 0
KSE2 091850Z 23009KT 19/12 A3025 RMK A01 T01900122  RH  064%=      5-min Rain = 0
KSE2 091851Z 23008KT 19/12 A3025 RMK A01 T01900121  RH  064%=      5-min Rain = 0
KSE2 091852Z 25005KT 19/12 A3024 RMK A01 T01900120  RH  064%=      5-min Rain = 0
KSE2 091853Z 26004KT 19/12 A3024 RMK A01 T01880118  RH  064%=      5-min Rain = 0
KSE2 091854Z 24005KT 19/12 A3024 RMK A01 T01880124  RH  066%=      5-min Rain = 0
KSE2 091855Z 20006KT 19/13 A3024 RMK A01 T01920125  RH  065%=      5-min Rain = 0
KSE2 091856Z 20007KT 20/13 A3024 RMK A01 T01960125  RH  063%=      5-min Rain = 0
KSE2 091857Z 21006KT 20/12 A3024 RMK A01 T01970124  RH  063%=      5-min Rain = 0
KSE2 091858Z 21004KT 20/12 A3024 RMK A01 T01970123  RH  062%=      5-min Rain = 0
KSE2 091859Z 20005KT 20/12 A3024 RMK A01 T01970124  RH  063%=      5-min Rain = 0
KSE2 091900Z 23007KT 20/12 A3024 RMK A01 T01950121  RH  062%=      5-min Rain = 0
KSE2 091901Z 24005KT 19/12 A3024 RMK A01 T01930121  RH  063%=      5-min Rain = 0
KSE2 091902Z 25005KT 19/12 A3024 RMK A01 T01930122  RH  064%=      5-min Rain = 0
KSE2 091903Z 25005KT 19/12 A3024 RMK A01 T01930121  RH  063%=      5-min Rain = 0
KSE2 091904Z 23004KT 19/12 A3023 RMK A01 T01930120  RH  063%=      5-min Rain = 0
KSE2 091905Z 21008KT 19/12 A3023 RMK A01 T01930123  RH  064%=      5-min Rain = 0
KSE2 091906Z 21006KT 20/12 A3023 RMK A01 T01950122  RH  063%=      5-min Rain = 0
KSE2 091907Z 22008KT 19/12 A3023 RMK A01 T01940121  RH  063%=      5-min Rain = 0
KSE2 091908Z 22006KT 19/12 A3023 RMK A01 T01940122  RH  063%=      5-min Rain = 0
KSE2 091909Z 24008KT 19/12 A3023 RMK A01 T01940123  RH  063%=      5-min Rain = 0
KSE2 091910Z 22005KT 19/12 A3023 RMK A01 T01940124  RH  064%=      5-min Rain = 0
KSE2 091911Z 23007KT 20/13 A3023 RMK A01 T01970126  RH  063%=      5-min Rain = 0
KSE2 091912Z 21007KT 20/12 A3023 RMK A01 T01970124  RH  063%=      5-min Rain = 0
KSE2 091913Z 22006KT 20/12 A3023 RMK A01 T01970122  RH  062%=      5-min Rain = 0
KSE2 091914Z 23007KT 20/12 A3023 RMK A01 T01960122  RH  063%=      5-min Rain = 0
KSE2 091915Z 22005KT 19/12 A3023 RMK A01 T01940119  RH  062%=      5-min Rain = 0
KSE2 091916Z 22003KT 19/12 A3023 RMK A01 T01920120  RH  063%=      5-min Rain = 0
KSE2 091917Z 22004KT 19/12 A3023 RMK A01 T01930123  RH  064%=      5-min Rain = 0
KSE2 091918Z 19005KT 20/13 A3023 RMK A01 T01960125  RH  063%=      5-min Rain = 0
KSE2 091919Z 24006KT 20/13 A3023 RMK A01 T01980125  RH  063%=      5-min Rain = 0
KSE2 091920Z 23006KT 20/12 A3023 RMK A01 T01990123  RH  061%=      5-min Rain = 0
KSE2 091921Z 23007KT 20/12 A3023 RMK A01 T01970123  RH  062%=      5-min Rain = 0
KSE2 091922Z 22004KT 20/12 A3023 RMK A01 T01960120  RH  062%=      5-min Rain = 0
KSE2 091923Z 22003KT 19/12 A3022 RMK A01 T01940119  RH  062%=      5-min Rain = 0
KSE2 091924Z 21004KT 19/12 A3022 RMK A01 T01930122  RH  063%=      5-min Rain = 0
KSE2 091925Z 21006KT 20/13 A3022 RMK A01 T01970126  RH  063%=      5-min Rain = 0
KSE2 091926Z 22006KT 20/12 A3022 RMK A01 T01990123  RH  062%=      5-min Rain = 0
KSE2 091927Z 19006KT 20/13 A3022 RMK A01 T01980126  RH  063%=      5-min Rain = 0
KSE2 091928Z 19006KT 20/13 A3022 RMK A01 T02000125  RH  062%=      5-min Rain = 0
KSE2 091929Z 21006KT 20/12 A3022 RMK A01 T02000124  RH  061%=      5-min Rain = 0
KSE2 091930Z 22005KT 20/12 A3022 RMK A01 T02000123  RH  061%=      5-min Rain = 0
KSE2 091931Z 21007KT 20/12 A3022 RMK A01 T01980123  RH  062%=      5-min Rain = 0
KSE2 091932Z 21007KT 20/12 A3022 RMK A01 T01980122  RH  062%=      5-min Rain = 0
KSE2 091933Z 20005KT 20/12 A3022 RMK A01 T01980124  RH  062%=      5-min Rain = 0
KSE2 091934Z 20004KT 20/13 A3022 RMK A01 T01980126  RH  063%=      5-min Rain = 0
KSE2 091935Z 19007KT 20/13 A3022 RMK A01 T02010125  RH  062%=      5-min Rain = 0
KSE2 091936Z 18005KT 20/12 A3022 RMK A01 T02010124  RH  061%=      5-min Rain = 0
KSE2 091937Z 17005KT 20/13 A3022 RMK A01 T02010125  RH  061%=      5-min Rain = 0
KSE2 091938Z 18004KT 20/13 A3022 RMK A01 T02020126  RH  062%=      5-min Rain = 0
KSE2 091939Z 20006KT 20/13 A3022 RMK A01 T02030126  RH  062%=      5-min Rain = 0
KSE2 091940Z 21007KT 20/13 A3022 RMK A01 T02030125  RH  061%=      5-min Rain = 0
KSE2 091941Z 21005KT 20/12 A3022 RMK A01 T02030124  RH  061%=      5-min Rain = 0
KSE2 091942Z 20006KT 20/12 A3022 RMK A01 T02010124  RH  061%=      5-min Rain = 0
KSE2 091943Z 19005KT 20/12 A3022 RMK A01 T02010123  RH  061%=      5-min Rain = 0
KSE2 091944Z 21003KT 20/12 A3022 RMK A01 T02000122  RH  061%=      5-min Rain = 0
KSE2 091945Z 21003KT 20/13 A3022 RMK A01 T02000125  RH  062%=      5-min Rain = 0
KSE2 091946Z 23004KT 20/12 A3022 RMK A01 T02010124  RH  061%=      5-min Rain = 0
KSE2 091947Z 23002KT 20/13 A3022 RMK A01 T02020125  RH  061%=      5-min Rain = 0
KSE2 091948Z 22004KT 20/13 A3022 RMK A01 T02030125  RH  061%=      5-min Rain = 0
KSE2 091949Z 19005KT 20/13 A3022 RMK A01 T02020125  RH  061%=      5-min Rain = 0
KSE2 091950Z 18002KT 20/12 A3021 RMK A01 T02020124  RH  061%=      5-min Rain = 0
KSE2 091951Z 21007KT 20/13 A3021 RMK A01 T02030126  RH  061%=      5-min Rain = 0
KSE2 091952Z 19009KT 20/13 A3021 RMK A01 T02040125  RH  060%=      5-min Rain = 0
KSE2 091953Z 19007KT 20/12 A3021 RMK A01 T02030124  RH  060%=      5-min Rain = 0
KSE2 091954Z 19005KT 20/13 A3021 RMK A01 T02020126  RH  061%=      5-min Rain = 0
KSE2 091955Z 19004KT 20/12 A3021 RMK A01 T02030124  RH  061%=      5-min Rain = 0
KSE2 091956Z 15000KT 20/12 A3021 RMK A01 T02030121  RH  059%=      5-min Rain = 0
KSE2 091957Z 17003KT 20/12 A3021 RMK A01 T02030124  RH  060%=      5-min Rain = 0
KSE2 091958Z 18004KT 20/13 A3021 RMK A01 T02040127  RH  061%=      5-min Rain = 0
KSE2 091959Z 18005KT 21/13 A3021 RMK A01 T02050127  RH  061%=      5-min Rain = 0
KSE2 092000Z 17005KT 21/12 A3021 RMK A01 T02050123  RH  059%=      5-min Rain = 0
KSE2 092001Z 16003KT 20/12 A3021 RMK A01 T02020121  RH  060%=      5-min Rain = 0
KSE2 092002Z 20002G7KT 20/13 A3021 RMK A01 T02010126  RH  062%=      5-min Rain = 0
KSE2 092003Z 20004KT 20/13 A3021 RMK A01 T02040127  RH  061%=      5-min Rain = 0
KSE2 092004Z 18004KT 21/13 A302 RMK A01 T02060128  RH  061%=      5-min Rain = 0
KSE2 092005Z 20004KT 21/13 A302 RMK A01 T02080127  RH  060%=      5-min Rain = 0
KSE2 092006Z 21004KT 21/13 A302 RMK A01 T02080129  RH  061%=      5-min Rain = 0
KSE2 092007Z 19005KT 21/13 A302 RMK A01 T02090127  RH  059%=      5-min Rain = 0
KSE2 092008Z 19004KT 21/13 A302 RMK A01 T02080128  RH  060%=      5-min Rain = 0
KSE2 092009Z 24007KT 21/13 A302 RMK A01 T02090129  RH  060%=      5-min Rain = 0
KSE2 092010Z 25006KT 21/13 A302 RMK A01 T02080125  RH  059%=      5-min Rain = 0
KSE2 092011Z 24006KT 21/12 A302 RMK A01 T02050124  RH  060%=      5-min Rain = 0
KSE2 092012Z 23004KT 20/12 A302 RMK A01 T02030124  RH  061%=      5-min Rain = 0
KSE2 092013Z 24003KT 20/12 A302 RMK A01 T02020124  RH  061%=      5-min Rain = 0
KSE2 092014Z 20002KT 20/13 A302 RMK A01 T02020125  RH  061%=      5-min Rain = 0
KSE2 092015Z 24005KT 20/13 A302 RMK A01 T02030126  RH  061%=      5-min Rain = 0
KSE2 092016Z 25005KT 21/13 A302 RMK A01 T02050125  RH  060%=      5-min Rain = 0
KSE2 092017Z 25006KT 20/13 A302 RMK A01 T02040126  RH  061%=      5-min Rain = 0
KSE2 092018Z 25006KT 20/13 A302 RMK A01 T02040126  RH  061%=      5-min Rain = 0
KSE2 092019Z 25005KT 20/13 A302 RMK A01 T02040126  RH  061%=      5-min Rain = 0
KSE2 092020Z 25005KT 20/13 A302 RMK A01 T02040125  RH  061%=      5-min Rain = 0
KSE2 092021Z 24008KT 20/13 A302 RMK A01 T02040126  RH  061%=      5-min Rain = 0
KSE2 092022Z 22006KT 21/13 A302 RMK A01 T02050128  RH  061%=      5-min Rain = 0
KSE2 092023Z 20007KT 21/13 A302 RMK A01 T02060129  RH  061%=      5-min Rain = 0
KSE2 092024Z 20006KT 21/13 A302 RMK A01 T02060126  RH  060%=      5-min Rain = 0
KSE2 092025Z 20005KT 20/13 A302 RMK A01 T02040126  RH  061%=      5-min Rain = 0
KSE2 092026Z 22005KT 20/13 A302 RMK A01 T02040127  RH  061%=      5-min Rain = 0
KSE2 092027Z 22003KT 21/13 A302 RMK A01 T02050126  RH  060%=      5-min Rain = 0
KSE2 092028Z 23005KT 21/13 A302 RMK A01 T02060128  RH  061%=      5-min Rain = 0
KSE2 092029Z 24003KT 21/13 A302 RMK A01 T02060125  RH  060%=      5-min Rain = 0
KSE2 092030Z 23005KT 21/13 A302 RMK A01 T02050126  RH  061%=      5-min Rain = 0
KSE2 092031Z 21002KT 20/13 A302 RMK A01 T02040127  RH  061%=      5-min Rain = 0
KSE2 092032Z 21003KT 21/13 A302 RMK A01 T02060127  RH  060%=      5-min Rain = 0
KSE2 092033Z 17003KT 21/13 A302 RMK A01 T02070125  RH  059%=      5-min Rain = 0
KSE2 092034Z 13001KT 21/13 A302 RMK A01 T02070125  RH  059%=      5-min Rain = 0
KSE2 092035Z 23004KT 21/13 A302 RMK A01 T02080128  RH  060%=      5-min Rain = 0
KSE2 092036Z 19007KT 21/13 A302 RMK A01 T02100129  RH  060%=      5-min Rain = 0
KSE2 092037Z 19004KT 21/13 A302 RMK A01 T02100127  RH  059%=      5-min Rain = 0
KSE2 092038Z 18006KT 21/13 A302 RMK A01 T02090128  RH  060%=      5-min Rain = 0
KSE2 092039Z 19006KT 21/13 A302 RMK A01 T02100128  RH  059%=      5-min Rain = 0
KSE2 092040Z 20006KT 21/13 A302 RMK A01 T02090125  RH  059%=      5-min Rain = 0
KSE2 092041Z 21005KT 21/13 A302 RMK A01 T02090128  RH  060%=      5-min Rain = 0
KSE2 092042Z 20006KT 21/13 A302 RMK A01 T02090127  RH  059%=      5-min Rain = 0
KSE2 092043Z 20006KT 21/13 A302 RMK A01 T02100126  RH  059%=      5-min Rain = 0
KSE2 092044Z 22005KT 21/13 A302 RMK A01 T02090126  RH  059%=      5-min Rain = 0
KSE2 092045Z 24006KT 21/13 A3019 RMK A01 T02090127  RH  059%=      5-min Rain = 0
KSE2 092046Z 24006KT 21/13 A3019 RMK A01 T02090128  RH  060%=      5-min Rain = 0
KSE2 092047Z 23005KT 21/13 A3019 RMK A01 T02100127  RH  059%=      5-min Rain = 0
KSE2 092048Z 25005KT 21/13 A3019 RMK A01 T02090128  RH  060%=      5-min Rain = 0
KSE2 092049Z 27005KT 21/13 A3019 RMK A01 T02090130  RH  060%=      5-min Rain = 0
KSE2 092050Z 28005KT 21/13 A3019 RMK A01 T02090126  RH  059%=      5-min Rain = 0
KSE2 092051Z 29004KT 21/13 A3019 RMK A01 T02080127  RH  060%=      5-min Rain = 0
KSE2 092052Z 26002KT 21/13 A3019 RMK A01 T02070126  RH  060%=      5-min Rain = 0
KSE2 092053Z 15003KT 21/13 A3019 RMK A01 T02070128  RH  060%=      5-min Rain = 0
KSE2 092054Z 15003KT 21/13 A3019 RMK A01 T02100129  RH  060%=      5-min Rain = 0
KSE2 092055Z 16006KT 21/13 A3019 RMK A01 T02110128  RH  059%=      5-min Rain = 0
KSE2 092056Z 17006KT 21/13 A3019 RMK A01 T02120129  RH  059%=      5-min Rain = 0
KSE2 092057Z 17004KT 21/13 A3019 RMK A01 T02120127  RH  058%=      5-min Rain = 0
KSE2 092058Z 20004KT 21/13 A3019 RMK A01 T02120128  RH  059%=      5-min Rain = 0
KSE2 092059Z 21007KT 21/13 A3019 RMK A01 T02120128  RH  059%=      5-min Rain = 0
KSE2 092100Z 22007KT 21/13 A3019 RMK A01 T02110127  RH  059%=      5-min Rain = 0
KSE2 092101Z 22006KT 21/13 A3019 RMK A01 T02100129  RH  060%=      5-min Rain = 0
KSE2 092102Z 25006KT 21/13 A3019 RMK A01 T02110129  RH  060%=      5-min Rain = 0
KSE2 092103Z 25006KT 21/13 A3019 RMK A01 T02120128  RH  059%=      5-min Rain = 0
KSE2 092104Z 23007KT 21/13 A3019 RMK A01 T02110129  RH  059%=      5-min Rain = 0
KSE2 092105Z 23006KT 21/13 A3019 RMK A01 T02110129  RH  060%=      5-min Rain = 0
KSE2 092106Z 24004KT 21/13 A3019 RMK A01 T02110127  RH  059%=      5-min Rain = 0
KSE2 092107Z 27003KT 21/13 A3019 RMK A01 T02100127  RH  059%=      5-min Rain = 0
KSE2 092108Z 27004KT 21/13 A3019 RMK A01 T02100126  RH  059%=      5-min Rain = 0
KSE2 092109Z 26002KT 21/13 A3019 RMK A01 T02100126  RH  059%=      5-min Rain = 0
KSE2 092110Z 27000KT 21/13 A3019 RMK A01 T02100130  RH  060%=      5-min Rain = 0
KSE2 092111Z 24003KT 21/13 A3019 RMK A01 T02120129  RH  059%=      5-min Rain = 0
KSE2 092112Z 20002KT 21/13 A3019 RMK A01 T02130127  RH  058%=      5-min Rain = 0
KSE2 092113Z 24006KT 21/13 A3019 RMK A01 T02130130  RH  059%=      5-min Rain = 0
KSE2 092114Z 25008KT 21/13 A3019 RMK A01 T02130129  RH  058%=      5-min Rain = 0
KSE2 092115Z 24008KT 21/13 A3019 RMK A01 T02120129  RH  059%=      5-min Rain = 0
KSE2 092116Z 24007KT 21/13 A3019 RMK A01 T02110127  RH  059%=      5-min Rain = 0
KSE2 092117Z 25006KT 21/13 A3019 RMK A01 T02080127  RH  059%=      5-min Rain = 0
KSE2 092118Z 24005KT 21/13 A3019 RMK A01 T02070126  RH  060%=      5-min Rain = 0
KSE2 092119Z 24004KT 21/13 A3018 RMK A01 T02060127  RH  060%=      5-min Rain = 0
KSE2 092120Z 22004KT 21/13 A3018 RMK A01 T02080127  RH  060%=      5-min Rain = 0
KSE2 092121Z 24002KT 21/13 A3018 RMK A01 T02080126  RH  059%=      5-min Rain = 0
KSE2 092122Z 24004KT 21/13 A3018 RMK A01 T02090127  RH  059%=      5-min Rain = 0
KSE2 092123Z 25006KT 21/13 A3018 RMK A01 T02110128  RH  059%=      5-min Rain = 0
KSE2 092124Z 24005KT 21/13 A3018 RMK A01 T02120128  RH  059%=      5-min Rain = 0
KSE2 092125Z 22005KT 21/13 A3018 RMK A01 T02120128  RH  058%=      5-min Rain = 0
KSE2 092126Z 24005KT 21/13 A3018 RMK A01 T02120128  RH  059%=      5-min Rain = 0
KSE2 092127Z 22003KT 21/13 A3018 RMK A01 T02120127  RH  058%=      5-min Rain = 0
KSE2 092128Z 19003KT 21/13 A3018 RMK A01 T02120130  RH  060%=      5-min Rain = 0
KSE2 092129Z 20005KT 21/13 A3018 RMK A01 T02140130  RH  059%=      5-min Rain = 0
KSE2 092130Z 21005KT 22/13 A3018 RMK A01 T02150128  RH  058%=      5-min Rain = 0
KSE2 092131Z 21006KT 21/13 A3018 RMK A01 T02140128  RH  058%=      5-min Rain = 0
KSE2 092132Z 20004KT 21/13 A3018 RMK A01 T02130126  RH  058%=      5-min Rain = 0
KSE2 092133Z 22005KT 21/13 A3018 RMK A01 T02110128  RH  059%=      5-min Rain = 0
KSE2 092134Z 23005KT 21/13 A3018 RMK A01 T02110127  RH  059%=      5-min Rain = 0
KSE2 092135Z 22004KT 21/13 A3018 RMK A01 T02080127  RH  060%=      5-min Rain = 0
KSE2 092136Z 23002KT 21/13 A3018 RMK A01 T02070128  RH  061%=      5-min Rain = 0
KSE2 092137Z 19004KT 21/13 A3018 RMK A01 T02070128  RH  060%=      5-min Rain = 0
KSE2 092138Z 20006KT 21/13 A3018 RMK A01 T02070127  RH  060%=      5-min Rain = 0
KSE2 092139Z 21005KT 21/13 A3018 RMK A01 T02070129  RH  061%=      5-min Rain = 0
KSE2 092140Z 19004KT 21/13 A3018 RMK A01 T02090129  RH  060%=      5-min Rain = 0
KSE2 092141Z 17003KT 21/13 A3018 RMK A01 T02100129  RH  060%=      5-min Rain = 0
KSE2 092142Z 19005KT 21/13 A3018 RMK A01 T02110128  RH  059%=      5-min Rain = 0
KSE2 092143Z 21005KT 21/13 A3018 RMK A01 T02110129  RH  059%=      5-min Rain = 0
KSE2 092144Z 22006KT 21/13 A3018 RMK A01 T02130130  RH  059%=      5-min Rain = 0
KSE2 092145Z 20005KT 21/13 A3018 RMK A01 T02130131  RH  059%=      5-min Rain = 0
KSE2 092146Z 22006KT 21/13 A3018 RMK A01 T02130131  RH  059%=      5-min Rain = 0
KSE2 092147Z 21005KT 21/13 A3018 RMK A01 T02120130  RH  059%=      5-min Rain = 0
KSE2 092148Z 24004KT 21/13 A3018 RMK A01 T02100129  RH  060%=      5-min Rain = 0
KSE2 092149Z 24004KT 21/13 A3018 RMK A01 T02090130  RH  061%=      5-min Rain = 0
KSE2 092150Z 24004KT 21/13 A3018 RMK A01 T02090130  RH  060%=      5-min Rain = 0
KSE2 092151Z 25004KT 21/13 A3018 RMK A01 T02090129  RH  060%=      5-min Rain = 0
KSE2 092152Z 26005KT 21/13 A3018 RMK A01 T02080130  RH  061%=      5-min Rain = 0
KSE2 092153Z 25004KT 21/13 A3018 RMK A01 T02080129  RH  061%=      5-min Rain = 0
KSE2 092154Z 26003KT 21/13 A3018 RMK A01 T02070128  RH  061%=      5-min Rain = 0
KSE2 092155Z 25004KT 21/13 A3018 RMK A01 T02060132  RH  062%=      5-min Rain = 0
KSE2 092156Z 26004KT 21/13 A3018 RMK A01 T02070127  RH  060%=      5-min Rain = 0
KSE2 092157Z 27002KT 21/13 A3018 RMK A01 T02060128  RH  061%=      5-min Rain = 0
KSE2 092158Z 27002KT 21/13 A3018 RMK A01 T02060128  RH  061%=      5-min Rain = 0
KSE2 092159Z 27002KT 21/13 A3018 RMK A01 T02060128  RH  061%=      5-min Rain = 0
KSE2 092200Z 23004KT 21/13 A3018 RMK A01 T02060131  RH  062%=      5-min Rain = 0
KSE2 092201Z 22004KT 21/13 A3018 RMK A01 T02070128  RH  061%=      5-min Rain = 0
KSE2 092202Z 23005KT 21/13 A3018 RMK A01 T02080129  RH  061%=      5-min Rain = 0
KSE2 092203Z 23005KT 21/13 A3018 RMK A01 T02080128  RH  060%=      5-min Rain = 0
KSE2 092204Z 24005KT 21/13 A3018 RMK A01 T02080129  RH  060%=      5-min Rain = 0
KSE2 092205Z 23004KT 21/13 A3018 RMK A01 T02080128  RH  060%=      5-min Rain = 0
KSE2 092206Z 22004KT 21/13 A3018 RMK A01 T02070128  RH  061%=      5-min Rain = 0
KSE2 092207Z 23005KT 21/13 A3018 RMK A01 T02070128  RH  060%=      5-min Rain = 0
KSE2 092208Z 22005KT 21/13 A3018 RMK A01 T02070130  RH  061%=      5-min Rain = 0
KSE2 092209Z 22005KT 21/13 A3018 RMK A01 T02070128  RH  060%=      5-min Rain = 0
KSE2 092210Z 21003KT 21/13 A3018 RMK A01 T02070128  RH  061%=      5-min Rain = 0
KSE2 092211Z 22003KT 21/13 A3018 RMK A01 T02070129  RH  061%=      5-min Rain = 0
KSE2 092212Z 23003KT 21/13 A3018 RMK A01 T02070129  RH  061%=      5-min Rain = 0
KSE2 092213Z 23003KT 21/13 A3018 RMK A01 T02070127  RH  060%=      5-min Rain = 0
KSE2 092214Z 20004KT 21/13 A3018 RMK A01 T02060127  RH  060%=      5-min Rain = 0
KSE2 092215Z 18003KT 21/13 A3018 RMK A01 T02060129  RH  061%=      5-min Rain = 0
KSE2 092216Z 22004KT 21/13 A3017 RMK A01 T02060130  RH  062%=      5-min Rain = 0
KSE2 092217Z 23004KT 21/13 A3017 RMK A01 T02070128  RH  061%=      5-min Rain = 0
KSE2 092218Z 24003KT 21/13 A3017 RMK A01 T02060126  RH  060%=      5-min Rain = 0
KSE2 092219Z 23003KT 21/13 A3017 RMK A01 T02060128  RH  061%=      5-min Rain = 0
KSE2 092220Z 19004KT 21/13 A3017 RMK A01 T02060129  RH  061%=      5-min Rain = 0
KSE2 092221Z 20004KT 21/13 A3017 RMK A01 T02070129  RH  061%=      5-min Rain = 0
KSE2 092222Z 20004KT 21/13 A3017 RMK A01 T02080129  RH  061%=      5-min Rain = 0
KSE2 092223Z 19003KT 21/13 A3017 RMK A01 T02090130  RH  061%=      5-min Rain = 0
KSE2 092224Z 18005KT 21/13 A3017 RMK A01 T02110130  RH  060%=      5-min Rain = 0
KSE2 092225Z 18005KT 21/13 A3017 RMK A01 T02110129  RH  059%=      5-min Rain = 0
KSE2 092226Z 16004KT 21/13 A3017 RMK A01 T02110128  RH  059%=      5-min Rain = 0
KSE2 092227Z 15003KT 21/13 A3017 RMK A01 T02110129  RH  059%=      5-min Rain = 0
KSE2 092228Z 16002KT 21/13 A3017 RMK A01 T02110128  RH  059%=      5-min Rain = 0
KSE2 092229Z 16002KT 21/13 A3017 RMK A01 T02120127  RH  059%=      5-min Rain = 0
KSE2 092230Z 19004KT 21/13 A3017 RMK A01 T02120129  RH  059%=      5-min Rain = 0
KSE2 092231Z 20006KT 21/13 A3017 RMK A01 T02120129  RH  059%=      5-min Rain = 0
KSE2 092232Z 19005KT 21/13 A3017 RMK A01 T02110129  RH  059%=      5-min Rain = 0
KSE2 092233Z 19006KT 21/13 A3017 RMK A01 T02100128  RH  059%=      5-min Rain = 0
KSE2 092234Z 18006KT 21/13 A3017 RMK A01 T02100129  RH  060%=      5-min Rain = 0
KSE2 092235Z 16005KT 21/13 A3017 RMK A01 T02100128  RH  060%=      5-min Rain = 0
KSE2 092236Z 18005KT 21/13 A3017 RMK A01 T02090128  RH  060%=      5-min Rain = 0
KSE2 092237Z 18003KT 21/13 A3017 RMK A01 T02090129  RH  060%=      5-min Rain = 0
KSE2 092238Z 20006KT 21/13 A3017 RMK A01 T02090131  RH  061%=      5-min Rain = 0
KSE2 092239Z 20006KT 21/13 A3017 RMK A01 T02080129  RH  060%=      5-min Rain = 0
KSE2 092240Z 20006KT 21/13 A3017 RMK A01 T02080129  RH  061%=      5-min Rain = 0
KSE2 092241Z 19006KT 21/13 A3017 RMK A01 T02070129  RH  061%=      5-min Rain = 0
KSE2 092242Z 19007KT 21/13 A3017 RMK A01 T02060129  RH  061%=      5-min Rain = 0
KSE2 092243Z 19005KT 21/13 A3017 RMK A01 T02060128  RH  061%=      5-min Rain = 0
KSE2 092244Z 21005KT 21/13 A3017 RMK A01 T02050130  RH  062%=      5-min Rain = 0
KSE2 092245Z 20005KT 21/13 A3017 RMK A01 T02050129  RH  061%=      5-min Rain = 0
KSE2 092246Z 20004KT 21/13 A3017 RMK A01 T02050129  RH  061%=      5-min Rain = 0
KSE2 092247Z 22005KT 21/13 A3017 RMK A01 T02050129  RH  062%=      5-min Rain = 0
KSE2 092248Z 21005KT 21/13 A3017 RMK A01 T02050129  RH  062%=      5-min Rain = 0
KSE2 092249Z 21005KT 21/13 A3017 RMK A01 T02050129  RH  062%=      5-min Rain = 0
KSE2 092250Z 19006KT 20/13 A3017 RMK A01 T02040129  RH  062%=      5-min Rain = 0
KSE2 092251Z 19006KT 20/13 A3017 RMK A01 T02040129  RH  062%=      5-min Rain = 0
KSE2 092252Z 20005KT 20/13 A3017 RMK A01 T02040130  RH  063%=      5-min Rain = 0
KSE2 092253Z 22005KT 20/13 A3017 RMK A01 T02040131  RH  063%=      5-min Rain = 0
KSE2 092254Z 20004KT 20/13 A3017 RMK A01 T02040131  RH  063%=      5-min Rain = 0
KSE2 092255Z 20004KT 20/13 A3017 RMK A01 T02030131  RH  063%=      5-min Rain = 0
KSE2 092256Z 20004KT 20/13 A3017 RMK A01 T02030131  RH  063%=      5-min Rain = 0
KSE2 092257Z 20004KT 20/13 A3017 RMK A01 T02040131  RH  063%=      5-min Rain = 0
KSE2 092258Z 21005KT 20/13 A3017 RMK A01 T02030129  RH  062%=      5-min Rain = 0
KSE2 092259Z 21004KT 20/13 A3017 RMK A01 T02030130  RH  063%=      5-min Rain = 0
KSE2 092300Z 21004KT 20/13 A3017 RMK A01 T02030130  RH  063%=      5-min Rain = 0
KSE2 092301Z 20004KT 20/13 A3017 RMK A01 T02030130  RH  063%=      5-min Rain = 0
KSE2 092302Z 21004KT 20/13 A3017 RMK A01 T02030131  RH  063%=      5-min Rain = 0
KSE2 092303Z 19004KT 20/13 A3017 RMK A01 T02030130  RH  063%=      5-min Rain = 0
KSE2 092304Z 19004KT 20/13 A3017 RMK A01 T02030130  RH  063%=      5-min Rain = 0
KSE2 092305Z 18004KT 20/13 A3017 RMK A01 T02030130  RH  063%=      5-min Rain = 0
KSE2 092306Z 19004KT 20/13 A3017 RMK A01 T02030130  RH  063%=      5-min Rain = 0
KSE2 092307Z 20004KT 20/13 A3017 RMK A01 T02030129  RH  062%=      5-min Rain = 0
KSE2 092308Z 21004KT 20/13 A3017 RMK A01 T02040129  RH  062%=      5-min Rain = 0
KSE2 092309Z 19003KT 21/13 A3017 RMK A01 T02050130  RH  062%=      5-min Rain = 0
KSE2 092310Z 19003KT 21/13 A3017 RMK A01 T02060131  RH  062%=      5-min Rain = 0
KSE2 092311Z 20004KT 21/13 A3017 RMK A01 T02070130  RH  062%=      5-min Rain = 0
KSE2 092312Z 20004KT 21/13 A3017 RMK A01 T02070130  RH  061%=      5-min Rain = 0
KSE2 092313Z 19004KT 21/13 A3017 RMK A01 T02070130  RH  061%=      5-min Rain = 0
KSE2 092314Z 19004KT 21/13 A3017 RMK A01 T02070129  RH  061%=      5-min Rain = 0
KSE2 092315Z 19003KT 21/13 A3017 RMK A01 T02070129  RH  061%=      5-min Rain = 0
KSE2 092316Z 20003KT 21/13 A3017 RMK A01 T02070130  RH  061%=      5-min Rain = 0
KSE2 092317Z 19003KT 21/13 A3017 RMK A01 T02070129  RH  061%=      5-min Rain = 0
KSE2 092318Z 19003KT 21/13 A3017 RMK A01 T02070129  RH  061%=      5-min Rain = 0
KSE2 092319Z 20002KT 21/13 A3017 RMK A01 T02070129  RH  061%=      5-min Rain = 0
KSE2 092320Z 19002KT 21/13 A3017 RMK A01 T02070131  RH  061%=      5-min Rain = 0
KSE2 092321Z 20004KT 21/13 A3017 RMK A01 T02070130  RH  061%=      5-min Rain = 0
KSE2 092322Z 19004KT 21/13 A3017 RMK A01 T02070129  RH  061%=      5-min Rain = 0
KSE2 092323Z 19004KT 21/13 A3017 RMK A01 T02060128  RH  061%=      5-min Rain = 0
KSE2 092324Z 20004KT 21/13 A3017 RMK A01 T02060128  RH  061%=      5-min Rain = 0
KSE2 092325Z 19002KT 21/13 A3017 RMK A01 T02050128  RH  061%=      5-min Rain = 0
KSE2 092326Z 20003KT 20/13 A3017 RMK A01 T02040129  RH  062%=      5-min Rain = 0
KSE2 092327Z 20003KT 20/13 A3017 RMK A01 T02040129  RH  062%=      5-min Rain = 0
KSE2 092328Z 19005KT 20/13 A3017 RMK A01 T02030128  RH  062%=      5-min Rain = 0
KSE2 092329Z 19004KT 20/13 A3017 RMK A01 T02020128  RH  063%=      5-min Rain = 0
KSE2 092330Z 19004KT 20/13 A3017 RMK A01 T02010129  RH  063%=      5-min Rain = 0
KSE2 092331Z 19004KT 20/13 A3017 RMK A01 T01990128  RH  064%=      5-min Rain = 0
KSE2 092332Z 20003KT 20/13 A3017 RMK A01 T01990128  RH  064%=      5-min Rain = 0
KSE2 092333Z 20003KT 20/13 A3017 RMK A01 T01980129  RH  064%=      5-min Rain = 0
KSE2 092334Z 20003KT 20/13 A3017 RMK A01 T01970128  RH  064%=      5-min Rain = 0
KSE2 092335Z 20003KT 20/13 A3017 RMK A01 T01970129  RH  065%=      5-min Rain = 0
KSE2 092336Z 21002KT 20/13 A3017 RMK A01 T01960129  RH  065%=      5-min Rain = 0
KSE2 092337Z 21003KT 20/13 A3017 RMK A01 T01960129  RH  065%=      5-min Rain = 0
KSE2 092338Z 21003KT 20/13 A3017 RMK A01 T01950129  RH  066%=      5-min Rain = 0
KSE2 092339Z 21003KT 19/13 A3017 RMK A01 T01940129  RH  066%=      5-min Rain = 0
KSE2 092340Z 20003KT 19/13 A3017 RMK A01 T01940129  RH  066%=      5-min Rain = 0
KSE2 092341Z 21003KT 19/13 A3017 RMK A01 T01930129  RH  066%=      5-min Rain = 0
KSE2 092342Z 21003KT 19/13 A3017 RMK A01 T01920129  RH  067%=      5-min Rain = 0
KSE2 092343Z 21003KT 19/13 A3017 RMK A01 T01920129  RH  067%=      5-min Rain = 0
KSE2 092344Z 20003KT 19/13 A3017 RMK A01 T01910129  RH  067%=      5-min Rain = 0
KSE2 092345Z 20003KT 19/13 A3016 RMK A01 T01900129  RH  068%=      5-min Rain = 0
KSE2 092346Z 20003KT 19/13 A3016 RMK A01 T01890129  RH  068%=      5-min Rain = 0
KSE2 092347Z 20003KT 19/13 A3016 RMK A01 T01890129  RH  068%=      5-min Rain = 0
KSE2 092348Z 20003KT 19/13 A3016 RMK A01 T01890129  RH  068%=      5-min Rain = 0
KSE2 092349Z 21004KT 19/13 A3016 RMK A01 T01880129  RH  069%=      5-min Rain = 0
KSE2 092350Z 20003KT 19/13 A3016 RMK A01 T01870129  RH  069%=      5-min Rain = 0
KSE2 092351Z 21003KT 19/13 A3016 RMK A01 T01860129  RH  069%=      5-min Rain = 0
KSE2 092352Z 21003KT 19/13 A3016 RMK A01 T01850129  RH  070%=      5-min Rain = 0
KSE2 092353Z 21003KT 18/13 A3016 RMK A01 T01840129  RH  070%=      5-min Rain = 0
KSE2 092354Z 22003KT 18/13 A3016 RMK A01 T01830129  RH  071%=      5-min Rain = 0
KSE2 092355Z 21003KT 18/13 A3016 RMK A01 T01820129  RH  071%=      5-min Rain = 0
KSE2 092356Z 21003KT 18/13 A3017 RMK A01 T01810129  RH  071%=      5-min Rain = 0
KSE2 092357Z 22004KT 18/13 A3017 RMK A01 T01810129  RH  072%=      5-min Rain = 0
KSE2 092358Z 22003KT 18/13 A3017 RMK A01 T01810129  RH  072%=      5-min Rain = 0
KSE2 092359Z 22003KT 18/13 A3017 RMK A01 T01800129  RH  072%=      5-min Rain = 0
KSE2 100000Z 22003KT 18/13 A3017 RMK A01 T01810129  RH  072%=      5-min Rain = 0
KSE2 100001Z 22004KT 18/13 A3017 RMK A01 T01810129  RH  072%=      5-min Rain = 0
KSE2 100002Z 22004KT 18/13 A3017 RMK A01 T01810129  RH  072%=      5-min Rain = 0
KSE2 100003Z 22004KT 18/13 A3017 RMK A01 T01800129  RH  072%=      5-min Rain = 0
KSE2 100004Z 22004KT 18/13 A3017 RMK A01 T01800129  RH  072%=      5-min Rain = 0
KSE2 100005Z 23004KT 18/13 A3017 RMK A01 T01800129  RH  072%=      5-min Rain = 0
KSE2 100006Z 23005KT 18/13 A3017 RMK A01 T01790129  RH  072%=      5-min Rain = 0
KSE2 100007Z 23005KT 18/13 A3017 RMK A01 T01770129  RH  073%=      5-min Rain = 0
KSE2 100008Z 23005KT 18/13 A3017 RMK A01 T01770129  RH  073%=      5-min Rain = 0
KSE2 100009Z 23005KT 18/13 A3017 RMK A01 T01770129  RH  073%=      5-min Rain = 0
KSE2 100010Z 23005KT 18/13 A3017 RMK A01 T01770128  RH  073%=      5-min Rain = 0
KSE2 100011Z 23005KT 18/13 A3017 RMK A01 T01770129  RH  073%=      5-min Rain = 0
KSE2 100012Z 23005KT 18/13 A3017 RMK A01 T01770129  RH  073%=      5-min Rain = 0
KSE2 100013Z 23004KT 18/13 A3017 RMK A01 T01770128  RH  073%=      5-min Rain = 0
KSE2 100014Z 23005KT 18/13 A3017 RMK A01 T01770129  RH  074%=      5-min Rain = 0
KSE2 100015Z 24005KT 18/13 A3017 RMK A01 T01770129  RH  074%=      5-min Rain = 0
KSE2 100016Z 23005KT 18/13 A3017 RMK A01 T01760129  RH  074%=      5-min Rain = 0
KSE2 100017Z 23005KT 18/13 A3017 RMK A01 T01750129  RH  074%=      5-min Rain = 0
KSE2 100018Z 23005KT 17/13 A3017 RMK A01 T01740129  RH  074%=      5-min Rain = 0
KSE2 100019Z 23005KT 17/13 A3017 RMK A01 T01740129  RH  075%=      5-min Rain = 0
KSE2 100020Z 23004KT 17/13 A3017 RMK A01 T01740128  RH  075%=      5-min Rain = 0
KSE2 100021Z 24005KT 17/13 A3017 RMK A01 T01730129  RH  075%=      5-min Rain = 0
KSE2 100022Z 23005KT 17/13 A3017 RMK A01 T01720128  RH  075%=      5-min Rain = 0
KSE2 100023Z 23005KT 17/13 A3017 RMK A01 T01720128  RH  076%=      5-min Rain = 0
KSE2 100024Z 23005KT 17/13 A3017 RMK A01 T01710128  RH  076%=      5-min Rain = 0
KSE2 100025Z 23005KT 17/13 A3017 RMK A01 T01710128  RH  076%=      5-min Rain = 0
KSE2 100026Z 23004KT 17/13 A3017 RMK A01 T01700128  RH  076%=      5-min Rain = 0
KSE2 100027Z 23005KT 17/13 A3017 RMK A01 T01700128  RH  076%=      5-min Rain = 0
KSE2 100028Z 23005KT 17/13 A3017 RMK A01 T01700128  RH  076%=      5-min Rain = 0
KSE2 100029Z 23005KT 17/13 A3017 RMK A01 T01700128  RH  076%=      5-min Rain = 0
KSE2 100030Z 22005KT 17/13 A3017 RMK A01 T01690128  RH  077%=      5-min Rain = 0
KSE2 100031Z 23005KT 17/13 A3017 RMK A01 T01690127  RH  077%=      5-min Rain = 0
KSE2 100032Z 23005KT 17/13 A3017 RMK A01 T01680127  RH  077%=      5-min Rain = 0
KSE2 100033Z 23005KT 17/13 A3017 RMK A01 T01680127  RH  077%=      5-min Rain = 0
KSE2 100034Z 23005KT 17/13 A3017 RMK A01 T01680127  RH  077%=      5-min Rain = 0
KSE2 100035Z 23005KT 17/13 A3017 RMK A01 T01670127  RH  077%=      5-min Rain = 0
KSE2 100036Z 23005KT 17/13 A3017 RMK A01 T01670127  RH  077%=      5-min Rain = 0
KSE2 100037Z 23005KT 17/13 A3017 RMK A01 T01670127  RH  077%=      5-min Rain = 0
KSE2 100038Z 23005KT 17/13 A3017 RMK A01 T01670127  RH  078%=      5-min Rain = 0
KSE2 100039Z 22005KT 17/13 A3017 RMK A01 T01660127  RH  078%=      5-min Rain = 0
KSE2 100040Z 23005KT 17/13 A3017 RMK A01 T01660127  RH  078%=      5-min Rain = 0
KSE2 100041Z 22005KT 17/13 A3017 RMK A01 T01660127  RH  078%=      5-min Rain = 0
KSE2 100042Z 22006KT 17/13 A3017 RMK A01 T01660126  RH  078%=      5-min Rain = 0
KSE2 100043Z 22005KT 17/13 A3017 RMK A01 T01660126  RH  078%=      5-min Rain = 0
KSE2 100044Z 23005KT 17/13 A3017 RMK A01 T01660126  RH  077%=      5-min Rain = 0
KSE2 100045Z 22005KT 17/13 A3017 RMK A01 T01660127  RH  078%=      5-min Rain = 0
KSE2 100046Z 22005KT 17/13 A3017 RMK A01 T01660126  RH  077%=      5-min Rain = 0
KSE2 100047Z 23005KT 17/13 A3017 RMK A01 T01660126  RH  077%=      5-min Rain = 0
KSE2 100048Z 22006KT 17/13 A3017 RMK A01 T01660126  RH  077%=      5-min Rain = 0
KSE2 100049Z 22006KT 17/13 A3017 RMK A01 T01660126  RH  077%=      5-min Rain = 0
KSE2 100050Z 22006KT 17/13 A3017 RMK A01 T01650126  RH  077%=      5-min Rain = 0
KSE2 100051Z 22005KT 17/13 A3017 RMK A01 T01650126  RH  078%=      5-min Rain = 0
KSE2 100052Z 22006KT 16/13 A3017 RMK A01 T01640125  RH  078%=      5-min Rain = 0
KSE2 100053Z 21005KT 16/13 A3017 RMK A01 T01640126  RH  078%=      5-min Rain = 0
KSE2 100054Z 21005KT 16/13 A3017 RMK A01 T01640125  RH  078%=      5-min Rain = 0
KSE2 100055Z 21005KT 16/13 A3017 RMK A01 T01630125  RH  078%=      5-min Rain = 0
KSE2 100056Z 21005KT 16/13 A3017 RMK A01 T01620125  RH  078%=      5-min Rain = 0
KSE2 100057Z 21005KT 16/13 A3017 RMK A01 T01610125  RH  079%=      5-min Rain = 0
KSE2 100058Z 20005KT 16/13 A3017 RMK A01 T01610125  RH  079%=      5-min Rain = 0
KSE2 100059Z 21005KT 16/12 A3017 RMK A01 T01600124  RH  079%=      5-min Rain = 0
KSE2 100100Z 21006KT 16/12 A3017 RMK A01 T01610124  RH  079%=      5-min Rain = 0
KSE2 100101Z 21006KT 16/12 A3017 RMK A01 T01610124  RH  079%=      5-min Rain = 0
KSE2 100102Z 21005KT 16/12 A3017 RMK A01 T01610124  RH  079%=      5-min Rain = 0
KSE2 100103Z 21005KT 16/12 A3017 RMK A01 T01600124  RH  079%=      5-min Rain = 0
KSE2 100104Z 21005KT 16/12 A3017 RMK A01 T01600124  RH  079%=      5-min Rain = 0
KSE2 100105Z 21006KT 16/12 A3017 RMK A01 T01600123  RH  079%=      5-min Rain = 0
KSE2 100106Z 21006KT 16/12 A3017 RMK A01 T01590123  RH  079%=      5-min Rain = 0
KSE2 100107Z 20005KT 16/12 A3017 RMK A01 T01600123  RH  079%=      5-min Rain = 0
KSE2 100108Z 21005KT 16/12 A3018 RMK A01 T01600123  RH  079%=      5-min Rain = 0
KSE2 100109Z 21004KT 16/12 A3018 RMK A01 T01600123  RH  079%=      5-min Rain = 0
KSE2 100110Z 21006KT 16/12 A3018 RMK A01 T01600123  RH  079%=      5-min Rain = 0
KSE2 100111Z 21005KT 16/12 A3018 RMK A01 T01600123  RH  079%=      5-min Rain = 0
KSE2 100112Z 21005KT 16/12 A3018 RMK A01 T01600123  RH  079%=      5-min Rain = 0
KSE2 100113Z 21005KT 16/12 A3018 RMK A01 T01590123  RH  079%=      5-min Rain = 0
KSE2 100114Z 21005KT 16/12 A3018 RMK A01 T01590122  RH  079%=      5-min Rain = 0
KSE2 100115Z 21005KT 16/12 A3018 RMK A01 T01590122  RH  079%=      5-min Rain = 0
KSE2 100116Z 21005KT 16/12 A3018 RMK A01 T01590122  RH  079%=      5-min Rain = 0
KSE2 100117Z 20006KT 16/12 A3018 RMK A01 T01590122  RH  079%=      5-min Rain = 0
KSE2 100118Z 21005KT 16/12 A3018 RMK A01 T01590122  RH  079%=      5-min Rain = 0
KSE2 100119Z 21005KT 16/12 A3018 RMK A01 T01580122  RH  079%=      5-min Rain = 0
KSE2 100120Z 20006KT 16/12 A3018 RMK A01 T01580122  RH  079%=      5-min Rain = 0
KSE2 100121Z 21006KT 16/12 A3018 RMK A01 T01570121  RH  079%=      5-min Rain = 0
KSE2 100122Z 21005KT 16/12 A3018 RMK A01 T01580122  RH  079%=      5-min Rain = 0
KSE2 100123Z 20006KT 16/12 A3018 RMK A01 T01580122  RH  079%=      5-min Rain = 0
KSE2 100124Z 20006KT 16/12 A3018 RMK A01 T01570121  RH  079%=      5-min Rain = 0
KSE2 100125Z 20005KT 16/12 A3018 RMK A01 T01570121  RH  079%=      5-min Rain = 0
KSE2 100126Z 20005KT 16/12 A3018 RMK A01 T01570121  RH  079%=      5-min Rain = 0
KSE2 100127Z 20005KT 16/12 A3018 RMK A01 T01570121  RH  079%=      5-min Rain = 0
KSE2 100128Z 20005KT 16/12 A3018 RMK A01 T01560121  RH  080%=      5-min Rain = 0
KSE2 100129Z 20005KT 16/12 A3018 RMK A01 T01560121  RH  080%=      5-min Rain = 0
KSE2 100130Z 19005KT 16/12 A3018 RMK A01 T01560121  RH  080%=      5-min Rain = 0
KSE2 100131Z 19004KT 16/12 A3018 RMK A01 T01560121  RH  080%=      5-min Rain = 0
KSE2 100132Z 19005KT 16/12 A3018 RMK A01 T01550121  RH  080%=      5-min Rain = 0
KSE2 100133Z 19005KT 16/12 A3018 RMK A01 T01550120  RH  080%=      5-min Rain = 0
KSE2 100134Z 18005KT 15/12 A3018 RMK A01 T01540120  RH  080%=      5-min Rain = 0
KSE2 100135Z 18004KT 15/12 A3018 RMK A01 T01540121  RH  080%=      5-min Rain = 0
KSE2 100136Z 18005KT 15/12 A3018 RMK A01 T01530120  RH  081%=      5-min Rain = 0
KSE2 100137Z 19004KT 15/12 A3018 RMK A01 T01530120  RH  081%=      5-min Rain = 0
KSE2 100138Z 18004KT 15/12 A3018 RMK A01 T01520120  RH  081%=      5-min Rain = 0
KSE2 100139Z 18005KT 15/12 A3018 RMK A01 T01520120  RH  081%=      5-min Rain = 0
KSE2 100140Z 18004KT 15/12 A3018 RMK A01 T01510120  RH  081%=      5-min Rain = 0
KSE2 100141Z 18005KT 15/12 A3018 RMK A01 T01510119  RH  082%=      5-min Rain = 0
KSE2 100142Z 18006KT 15/12 A3018 RMK A01 T01500119  RH  082%=      5-min Rain = 0
KSE2 100143Z 18005KT 15/12 A3018 RMK A01 T01500119  RH  082%=      5-min Rain = 0
KSE2 100144Z 19006KT 15/12 A3018 RMK A01 T01500118  RH  082%=      5-min Rain = 0
KSE2 100145Z 18005KT 15/12 A3018 RMK A01 T01500118  RH  082%=      5-min Rain = 0
KSE2 100146Z 18005KT 15/12 A3018 RMK A01 T01490118  RH  082%=      5-min Rain = 0
KSE2 100147Z 18006KT 15/12 A3018 RMK A01 T01490117  RH  081%=      5-min Rain = 0
KSE2 100148Z 18005KT 15/12 A3018 RMK A01 T01490117  RH  081%=      5-min Rain = 0
KSE2 100149Z 18006KT 15/12 A3018 RMK A01 T01490117  RH  081%=      5-min Rain = 0
KSE2 100150Z 18005KT 15/12 A3018 RMK A01 T01490116  RH  081%=      5-min Rain = 0
KSE2 100151Z 18005KT 15/12 A3018 RMK A01 T01490116  RH  081%=      5-min Rain = 0
KSE2 100152Z 18005KT 15/12 A3019 RMK A01 T01490116  RH  081%=      5-min Rain = 0
KSE2 100153Z 18005KT 15/12 A3019 RMK A01 T01480116  RH  081%=      5-min Rain = 0
KSE2 100154Z 18005KT 15/12 A3019 RMK A01 T01480115  RH  081%=      5-min Rain = 0
KSE2 100155Z 18004KT 15/12 A3019 RMK A01 T01480115  RH  081%=      5-min Rain = 0
KSE2 100156Z 19004KT 15/12 A3019 RMK A01 T01470115  RH  081%=      5-min Rain = 0
KSE2 100157Z 18004KT 15/12 A3019 RMK A01 T01470115  RH  081%=      5-min Rain = 0
KSE2 100158Z 19004KT 15/12 A3019 RMK A01 T01470115  RH  081%=      5-min Rain = 0
KSE2 100159Z 19007KT 15/11 A3019 RMK A01 T01470114  RH  081%=      5-min Rain = 0
KSE2 100200Z 19004KT 15/11 A3019 RMK A01 T01470114  RH  081%=      5-min Rain = 0
KSE2 100201Z 19006KT 15/11 A3019 RMK A01 T01460114  RH  081%=      5-min Rain = 0
KSE2 100202Z 19006KT 15/11 A3019 RMK A01 T01470113  RH  080%=      5-min Rain = 0
KSE2 100203Z 20006KT 15/11 A3019 RMK A01 T01470113  RH  080%=      5-min Rain = 0
KSE2 100204Z 19005KT 15/11 A3019 RMK A01 T01470113  RH  080%=      5-min Rain = 0
KSE2 100205Z 19005KT 15/11 A3019 RMK A01 T01470113  RH  080%=      5-min Rain = 0
KSE2 100206Z 20007KT 15/11 A3019 RMK A01 T01470113  RH  080%=      5-min Rain = 0
KSE2 100207Z 20006KT 15/11 A3019 RMK A01 T01470113  RH  080%=      5-min Rain = 0
KSE2 100208Z 20006KT 15/11 A3019 RMK A01 T01470113  RH  080%=      5-min Rain = 0
KSE2 100209Z 19006KT 15/11 A3019 RMK A01 T01470113  RH  080%=      5-min Rain = 0
KSE2 100210Z 20005KT 15/11 A3019 RMK A01 T01460112  RH  080%=      5-min Rain = 0
KSE2 100211Z 20006KT 15/11 A3019 RMK A01 T01460112  RH  080%=      5-min Rain = 0
KSE2 100212Z 20006KT 15/11 A3019 RMK A01 T01460112  RH  080%=      5-min Rain = 0
KSE2 100213Z 20008KT 15/11 A3019 RMK A01 T01460112  RH  080%=      5-min Rain = 0
KSE2 100214Z 19007KT 15/11 A3019 RMK A01 T01460111  RH  080%=      5-min Rain = 0
KSE2 100215Z 19007KT 15/11 A3019 RMK A01 T01460111  RH  080%=      5-min Rain = 0
KSE2 100216Z 20007KT 15/11 A3019 RMK A01 T01460111  RH  080%=      5-min Rain = 0
KSE2 100217Z 19007KT 15/11 A3019 RMK A01 T01460111  RH  079%=      5-min Rain = 0
KSE2 100218Z 20007KT 15/11 A3019 RMK A01 T01460111  RH  079%=      5-min Rain = 0
KSE2 100219Z 20006KT 15/11 A3019 RMK A01 T01460111  RH  079%=      5-min Rain = 0
KSE2 100220Z 20005KT 15/11 A3019 RMK A01 T01460111  RH  079%=      5-min Rain = 0
KSE2 100221Z 19007KT 15/11 A3019 RMK A01 T01460111  RH  079%=      5-min Rain = 0
KSE2 100222Z 18005KT 15/11 A3019 RMK A01 T01450111  RH  080%=      5-min Rain = 0
KSE2 100223Z 18005KT 15/11 A3019 RMK A01 T01450111  RH  080%=      5-min Rain = 0
KSE2 100224Z 18005KT 15/11 A3019 RMK A01 T01450110  RH  080%=      5-min Rain = 0
KSE2 100225Z 18005KT 14/11 A3019 RMK A01 T01440110  RH  080%=      5-min Rain = 0
KSE2 100226Z 17004KT 14/11 A3019 RMK A01 T01440111  RH  080%=      5-min Rain = 0
KSE2 100227Z 17004KT 14/11 A3019 RMK A01 T01430110  RH  080%=      5-min Rain = 0
KSE2 100228Z 17004KT 14/11 A3019 RMK A01 T01430110  RH  081%=      5-min Rain = 0
KSE2 100229Z 16004KT 14/11 A3019 RMK A01 T01420110  RH  081%=      5-min Rain = 0
KSE2 100230Z 17005KT 14/11 A3019 RMK A01 T01410110  RH  081%=      5-min Rain = 0
KSE2 100231Z 18005KT 14/11 A3019 RMK A01 T01410110  RH  081%=      5-min Rain = 0
KSE2 100232Z 18005KT 14/11 A3019 RMK A01 T01420110  RH  081%=      5-min Rain = 0
KSE2 100233Z 18005KT 14/11 A3019 RMK A01 T01410110  RH  082%=      5-min Rain = 0
KSE2 100234Z 18004KT 14/11 A3019 RMK A01 T01410110  RH  082%=      5-min Rain = 0
KSE2 100235Z 18005KT 14/11 A3019 RMK A01 T01410110  RH  082%=      5-min Rain = 0
KSE2 100236Z 17005KT 14/11 A3019 RMK A01 T01400109  RH  082%=      5-min Rain = 0
KSE2 100237Z 18004KT 14/11 A3019 RMK A01 T01400109  RH  082%=      5-min Rain = 0
KSE2 100238Z 18006KT 14/11 A3019 RMK A01 T01390109  RH  082%=      5-min Rain = 0
KSE2 100239Z 18005KT 14/11 A3019 RMK A01 T01400109  RH  082%=      5-min Rain = 0
KSE2 100240Z 19005KT 14/11 A3019 RMK A01 T01400109  RH  082%=      5-min Rain = 0
KSE2 100241Z 18006KT 14/11 A3019 RMK A01 T01400109  RH  082%=      5-min Rain = 0
KSE2 100242Z 18004KT 14/11 A3019 RMK A01 T01400109  RH  082%=      5-min Rain = 0
KSE2 100243Z 18004KT 14/11 A3019 RMK A01 T01400109  RH  082%=      5-min Rain = 0
KSE2 100244Z 18004KT 14/11 A3019 RMK A01 T01390109  RH  082%=      5-min Rain = 0
KSE2 100245Z 18004KT 14/11 A3019 RMK A01 T01390109  RH  082%=      5-min Rain = 0
KSE2 100246Z 19003KT 14/11 A3019 RMK A01 T01390109  RH  082%=      5-min Rain = 0
KSE2 100247Z 19004KT 14/11 A3019 RMK A01 T01380109  RH  082%=      5-min Rain = 0
KSE2 100248Z 18004KT 14/11 A3019 RMK A01 T01380108  RH  082%=      5-min Rain = 0
KSE2 100249Z 18004KT 14/11 A3019 RMK A01 T01380108  RH  083%=      5-min Rain = 0
KSE2 100250Z 18003KT 14/11 A3019 RMK A01 T01370108  RH  083%=      5-min Rain = 0
KSE2 100251Z 19004KT 14/11 A3019 RMK A01 T01370108  RH  083%=      5-min Rain = 0
KSE2 100252Z 18004KT 14/11 A3019 RMK A01 T01370108  RH  083%=      5-min Rain = 0
KSE2 100253Z 18004KT 14/11 A3019 RMK A01 T01370108  RH  083%=      5-min Rain = 0
KSE2 100254Z 19004KT 14/11 A3019 RMK A01 T01370108  RH  083%=      5-min Rain = 0
KSE2 100255Z 17003KT 14/11 A3019 RMK A01 T01370108  RH  083%=      5-min Rain = 0
KSE2 100256Z 18003KT 14/11 A3019 RMK A01 T01360108  RH  083%=      5-min Rain = 0
KSE2 100257Z 17003KT 14/11 A3019 RMK A01 T01360108  RH  083%=      5-min Rain = 0
KSE2 100258Z 17004KT 14/11 A3019 RMK A01 T01350108  RH  083%=      5-min Rain = 0
KSE2 100259Z 17004KT 14/11 A3019 RMK A01 T01350108  RH  083%=      5-min Rain = 0
KSE2 100300Z 17003KT 14/11 A3019 RMK A01 T01350108  RH  084%=      5-min Rain = 0
KSE2 100301Z 17003KT 14/11 A3019 RMK A01 T01350108  RH  084%=      5-min Rain = 0
KSE2 100302Z 17003KT 13/11 A3019 RMK A01 T01340107  RH  084%=      5-min Rain = 0
KSE2 100303Z 18003KT 13/11 A3019 RMK A01 T01340107  RH  084%=      5-min Rain = 0
KSE2 100304Z 18004KT 13/11 A3019 RMK A01 T01340107  RH  084%=      5-min Rain = 0
KSE2 100305Z 18004KT 13/11 A3019 RMK A01 T01330107  RH  084%=      5-min Rain = 0
KSE2 100306Z 18005KT 13/11 A3019 RMK A01 T01330107  RH  084%=      5-min Rain = 0
KSE2 100307Z 18004KT 13/11 A3019 RMK A01 T01330107  RH  084%=      5-min Rain = 0
KSE2 100308Z 19004KT 13/11 A3019 RMK A01 T01330107  RH  085%=      5-min Rain = 0
KSE2 100309Z 18005KT 13/11 A3019 RMK A01 T01320107  RH  085%=      5-min Rain = 0
KSE2 100310Z 18005KT 13/11 A3019 RMK A01 T01320107  RH  085%=      5-min Rain = 0
KSE2 100311Z 18005KT 13/11 A3019 RMK A01 T01320107  RH  085%=      5-min Rain = 0
KSE2 100312Z 17004KT 13/11 A3019 RMK A01 T01320107  RH  085%=      5-min Rain = 0
KSE2 100313Z 17005KT 13/11 A3019 RMK A01 T01320107  RH  085%=      5-min Rain = 0
KSE2 100314Z 17004KT 13/11 A3019 RMK A01 T01320107  RH  085%=      5-min Rain = 0
KSE2 100315Z 18005KT 13/11 A302 RMK A01 T01320107  RH  085%=      5-min Rain = 0
KSE2 100316Z 17004KT 13/11 A302 RMK A01 T01320107  RH  085%=      5-min Rain = 0
KSE2 100317Z 17004KT 13/11 A302 RMK A01 T01320107  RH  085%=      5-min Rain = 0
KSE2 100318Z 17004KT 13/11 A3019 RMK A01 T01310107  RH  085%=      5-min Rain = 0
KSE2 100319Z 17004KT 13/11 A3019 RMK A01 T01310106  RH  085%=      5-min Rain = 0
KSE2 100320Z 17004KT 13/11 A3019 RMK A01 T01310107  RH  085%=      5-min Rain = 0
KSE2 100321Z 17004KT 13/11 A3019 RMK A01 T01300106  RH  085%=      5-min Rain = 0
KSE2 100322Z 18003KT 13/11 A3019 RMK A01 T01310107  RH  085%=      5-min Rain = 0
KSE2 100323Z 17005KT 13/11 A3019 RMK A01 T01300106  RH  085%=      5-min Rain = 0
KSE2 100324Z 18004KT 13/11 A3019 RMK A01 T01300106  RH  086%=      5-min Rain = 0
KSE2 100325Z 17004KT 13/11 A3019 RMK A01 T01300107  RH  086%=      5-min Rain = 0
KSE2 100326Z 18004KT 13/11 A3019 RMK A01 T01300106  RH  086%=      5-min Rain = 0
KSE2 100327Z 18004KT 13/11 A3019 RMK A01 T01290106  RH  086%=      5-min Rain = 0
KSE2 100328Z 18004KT 13/11 A3019 RMK A01 T01290106  RH  086%=      5-min Rain = 0
KSE2 100329Z 18004KT 13/11 A3019 RMK A01 T01290106  RH  086%=      5-min Rain = 0
KSE2 100330Z 18004KT 13/11 A3019 RMK A01 T01290106  RH  086%=      5-min Rain = 0
KSE2 100331Z 19004KT 13/11 A3019 RMK A01 T01280106  RH  086%=      5-min Rain = 0
KSE2 100332Z 18005KT 13/11 A3019 RMK A01 T01280106  RH  086%=      5-min Rain = 0
KSE2 100333Z 18005KT 13/11 A3019 RMK A01 T01280106  RH  087%=      5-min Rain = 0
KSE2 100334Z 18005KT 13/11 A3019 RMK A01 T01280106  RH  087%=      5-min Rain = 0
KSE2 100335Z 17005KT 13/11 A3019 RMK A01 T01280106  RH  087%=      5-min Rain = 0
KSE2 100336Z 18005KT 13/11 A3019 RMK A01 T01280106  RH  087%=      5-min Rain = 0
KSE2 100337Z 18004KT 13/11 A3019 RMK A01 T01280106  RH  087%=      5-min Rain = 0
KSE2 100338Z 17005KT 13/11 A3019 RMK A01 T01280106  RH  087%=      5-min Rain = 0
KSE2 100339Z 17005KT 13/11 A3019 RMK A01 T01280106  RH  087%=      5-min Rain = 0
KSE2 100340Z 17005KT 13/11 A3019 RMK A01 T01280106  RH  087%=      5-min Rain = 0
KSE2 100341Z 17004KT 13/11 A3019 RMK A01 T01280106  RH  087%=      5-min Rain = 0
KSE2 100342Z 17005KT 13/11 A3019 RMK A01 T01270106  RH  087%=      5-min Rain = 0
KSE2 100343Z 17005KT 13/11 A3019 RMK A01 T01270106  RH  087%=      5-min Rain = 0
KSE2 100344Z 17004KT 13/11 A3019 RMK A01 T01280107  RH  087%=      5-min Rain = 0
KSE2 100345Z 17006KT 13/11 A3019 RMK A01 T01270106  RH  087%=      5-min Rain = 0
KSE2 100346Z 16005KT 13/11 A3019 RMK A01 T01270106  RH  087%=      5-min Rain = 0
KSE2 100347Z 16006KT 13/11 A3019 RMK A01 T01270106  RH  087%=      5-min Rain = 0
KSE2 100348Z 17005KT 13/11 A3019 RMK A01 T01270106  RH  087%=      5-min Rain = 0
KSE2 100349Z 16006KT 13/11 A3019 RMK A01 T01270106  RH  087%=      5-min Rain = 0
KSE2 100350Z 16005KT 13/11 A3019 RMK A01 T01270106  RH  087%=      5-min Rain = 0
KSE2 100351Z 16005KT 13/11 A3019 RMK A01 T01260105  RH  087%=      5-min Rain = 0
KSE2 100352Z 16006KT 13/11 A3019 RMK A01 T01250105  RH  088%=      5-min Rain = 0
KSE2 100353Z 16006KT 13/11 A3019 RMK A01 T01250105  RH  088%=      5-min Rain = 0
KSE2 100354Z 16006KT 13/11 A3019 RMK A01 T01250105  RH  088%=      5-min Rain = 0
KSE2 100355Z 16005KT 13/11 A3019 RMK A01 T01250106  RH  088%=      5-min Rain = 0
KSE2 100356Z 16007KT 12/11 A3019 RMK A01 T01240105  RH  088%=      5-min Rain = 0
KSE2 100357Z 16006KT 12/11 A3019 RMK A01 T01240105  RH  088%=      5-min Rain = 0
KSE2 100358Z 16006KT 12/11 A3019 RMK A01 T01240105  RH  088%=      5-min Rain = 0
KSE2 100359Z 16005KT 12/11 A3019 RMK A01 T01240105  RH  088%=      5-min Rain = 0
KSE2 100400Z 16005KT 12/11 A3019 RMK A01 T01240105  RH  088%=      5-min Rain = 0
KSE2 100401Z 17006KT 12/11 A3019 RMK A01 T01230105  RH  088%=      5-min Rain = 0
KSE2 100402Z 17006KT 12/11 A3019 RMK A01 T01230105  RH  089%=      5-min Rain = 0
KSE2 100403Z 16005KT 12/11 A3019 RMK A01 T01230105  RH  089%=      5-min Rain = 0
KSE2 100404Z 16005KT 12/11 A3019 RMK A01 T01230105  RH  089%=      5-min Rain = 0
KSE2 100405Z 17004KT 12/11 A3019 RMK A01 T01230105  RH  089%=      5-min Rain = 0
KSE2 100406Z 16005KT 12/11 A3019 RMK A01 T01230105  RH  089%=      5-min Rain = 0
KSE2 100407Z 16005KT 12/11 A3019 RMK A01 T01230105  RH  089%=      5-min Rain = 0
KSE2 100408Z 16005KT 12/11 A3019 RMK A01 T01220105  RH  089%=      5-min Rain = 0
KSE2 100409Z 17005KT 12/11 A3019 RMK A01 T01220105  RH  089%=      5-min Rain = 0
KSE2 100410Z 17005KT 12/11 A3019 RMK A01 T01220105  RH  089%=      5-min Rain = 0
KSE2 100411Z 17005KT 12/11 A3019 RMK A01 T01220105  RH  089%=      5-min Rain = 0
KSE2 100412Z 18005KT 12/10 A3019 RMK A01 T01210104  RH  089%=      5-min Rain = 0
KSE2 100413Z 17006KT 12/10 A3019 RMK A01 T01210104  RH  089%=      5-min Rain = 0
KSE2 100414Z 17006KT 12/10 A3019 RMK A01 T01210104  RH  089%=      5-min Rain = 0
KSE2 100415Z 18006KT 12/11 A3019 RMK A01 T01220105  RH  089%=      5-min Rain = 0
KSE2 100416Z 18006KT 12/10 A3019 RMK A01 T01220104  RH  089%=      5-min Rain = 0
KSE2 100417Z 18006KT 12/10 A3019 RMK A01 T01220104  RH  089%=      5-min Rain = 0
KSE2 100418Z 18007KT 12/11 A3019 RMK A01 T01220105  RH  089%=      5-min Rain = 0
KSE2 100419Z 18007KT 12/11 A3019 RMK A01 T01220105  RH  089%=      5-min Rain = 0
KSE2 100420Z 18007KT 12/11 A3019 RMK A01 T01220105  RH  089%=      5-min Rain = 0
KSE2 100421Z 18006KT 12/10 A3019 RMK A01 T01220104  RH  089%=      5-min Rain = 0
KSE2 100422Z 18006KT 12/10 A3019 RMK A01 T01220104  RH  089%=      5-min Rain = 0
KSE2 100423Z 18006KT 12/10 A3019 RMK A01 T01220104  RH  089%=      5-min Rain = 0
KSE2 100424Z 18007KT 12/10 A3019 RMK A01 T01220104  RH  089%=      5-min Rain = 0
KSE2 100425Z 17006KT 12/10 A3019 RMK A01 T01220104  RH  089%=      5-min Rain = 0
KSE2 100426Z 18006KT 12/10 A3019 RMK A01 T01220104  RH  089%=      5-min Rain = 0
KSE2 100427Z 17007KT 12/10 A3019 RMK A01 T01220104  RH  089%=      5-min Rain = 0
KSE2 100428Z 18005KT 12/10 A3019 RMK A01 T01220104  RH  089%=      5-min Rain = 0
KSE2 100429Z 18005KT 12/10 A3019 RMK A01 T01220104  RH  089%=      5-min Rain = 0
KSE2 100430Z 18006KT 12/10 A3019 RMK A01 T01220104  RH  089%=      5-min Rain = 0
KSE2 100431Z 18004KT 12/10 A3019 RMK A01 T01220104  RH  089%=      5-min Rain = 0
KSE2 100432Z 18005KT 12/10 A3019 RMK A01 T01220104  RH  089%=      5-min Rain = 0
KSE2 100433Z 18006KT 12/10 A3019 RMK A01 T01220104  RH  089%=      5-min Rain = 0
KSE2 100434Z 18005KT 12/10 A3019 RMK A01 T01210104  RH  089%=      5-min Rain = 0
KSE2 100435Z 18005KT 12/10 A3019 RMK A01 T01220104  RH  089%=      5-min Rain = 0
KSE2 100436Z 18005KT 12/10 A3019 RMK A01 T01210104  RH  089%=      5-min Rain = 0
KSE2 100437Z 18004KT 12/10 A3019 RMK A01 T01210104  RH  089%=      5-min Rain = 0
KSE2 100438Z 18004KT 12/10 A3019 RMK A01 T01210104  RH  089%=      5-min Rain = 0
KSE2 100439Z 19005KT 12/10 A3019 RMK A01 T01210104  RH  089%=      5-min Rain = 0
KSE2 100440Z 18006KT 12/10 A3019 RMK A01 T01210104  RH  089%=      5-min Rain = 0
KSE2 100441Z 18006KT 12/10 A3019 RMK A01 T01210104  RH  089%=      5-min Rain = 0
KSE2 100442Z 18005KT 12/10 A3019 RMK A01 T01210104  RH  089%=      5-min Rain = 0
KSE2 100443Z 18005KT 12/10 A3019 RMK A01 T01210104  RH  089%=      5-min Rain = 0
KSE2 100444Z 18005KT 12/10 A3019 RMK A01 T01210104  RH  089%=      5-min Rain = 0
KSE2 100445Z 18006KT 12/10 A3019 RMK A01 T01210104  RH  089%=      5-min Rain = 0
KSE2 100446Z 18005KT 12/10 A3019 RMK A01 T01210104  RH  089%=      5-min Rain = 0
KSE2 100447Z 18004KT 12/10 A3019 RMK A01 T01210104  RH  089%=      5-min Rain = 0
KSE2 100448Z 19006KT 12/10 A3019 RMK A01 T01210104  RH  089%=      5-min Rain = 0
KSE2 100449Z 19006KT 12/10 A3019 RMK A01 T01210104  RH  089%=      5-min Rain = 0
KSE2 100450Z 18006KT 12/10 A3019 RMK A01 T01220104  RH  089%=      5-min Rain = 0
KSE2 100451Z 19005KT 12/10 A3019 RMK A01 T01220104  RH  089%=      5-min Rain = 0
KSE2 100452Z 18005KT 12/10 A3019 RMK A01 T01220104  RH  089%=      5-min Rain = 0
KSE2 100453Z 18004KT 12/10 A3019 RMK A01 T01220104  RH  089%=      5-min Rain = 0
KSE2 100454Z 18004KT 12/10 A3019 RMK A01 T01220104  RH  089%=      5-min Rain = 0
KSE2 100455Z 19005KT 12/10 A3019 RMK A01 T01210103  RH  089%=      5-min Rain = 0
KSE2 100456Z 18005KT 12/10 A3019 RMK A01 T01210104  RH  089%=      5-min Rain = 0
KSE2 100457Z 18004KT 12/10 A3019 RMK A01 T01210104  RH  089%=      5-min Rain = 0
KSE2 100458Z 19006KT 12/10 A3019 RMK A01 T01210104  RH  089%=      5-min Rain = 0
KSE2 100459Z 18005KT 12/10 A3019 RMK A01 T01210104  RH  089%=      5-min Rain = 0
KSE2 100500Z 18005KT 12/10 A3019 RMK A01 T01210103  RH  089%=      5-min Rain = 0
KSE2 100501Z 18005KT 12/10 A3019 RMK A01 T01210103  RH  089%=      5-min Rain = 0
KSE2 100502Z 18005KT 12/10 A3019 RMK A01 T01210103  RH  089%=      5-min Rain = 0
KSE2 100503Z 18005KT 12/10 A3019 RMK A01 T01210104  RH  089%=      5-min Rain = 0
KSE2 100504Z 19005KT 12/10 A3019 RMK A01 T01200104  RH  089%=      5-min Rain = 0
KSE2 100505Z 19005KT 12/10 A3019 RMK A01 T01210104  RH  089%=      5-min Rain = 0
KSE2 100506Z 19005KT 12/10 A3019 RMK A01 T01210104  RH  089%=      5-min Rain = 0
KSE2 100507Z 19006KT 12/10 A3018 RMK A01 T01210104  RH  089%=      5-min Rain = 0
KSE2 100508Z 18005KT 12/10 A3018 RMK A01 T01200103  RH  089%=      5-min Rain = 0
KSE2 100509Z 19006KT 12/10 A3018 RMK A01 T01200104  RH  090%=      5-min Rain = 0
KSE2 100510Z 19008KT 12/10 A3018 RMK A01 T01200104  RH  090%=      5-min Rain = 0
KSE2 100511Z 18005KT 12/10 A3018 RMK A01 T01200104  RH  090%=      5-min Rain = 0
KSE2 100512Z 18006KT 12/10 A3019 RMK A01 T01200103  RH  089%=      5-min Rain = 0
KSE2 100513Z 19006KT 12/10 A3019 RMK A01 T01200103  RH  089%=      5-min Rain = 0
KSE2 100514Z 19007KT 12/10 A3019 RMK A01 T01210103  RH  089%=      5-min Rain = 0
KSE2 100515Z 19006KT 12/10 A3019 RMK A01 T01210104  RH  089%=      5-min Rain = 0
KSE2 100516Z 19005KT 12/10 A3019 RMK A01 T01210103  RH  089%=      5-min Rain = 0
KSE2 100517Z 19006KT 12/10 A3019 RMK A01 T01210103  RH  089%=      5-min Rain = 0
KSE2 100518Z 18007KT 12/10 A3019 RMK A01 T01210103  RH  089%=      5-min Rain = 0
KSE2 100519Z 18005KT 12/10 A3019 RMK A01 T01210103  RH  089%=      5-min Rain = 0
KSE2 100520Z 18006KT 12/10 A3019 RMK A01 T01200103  RH  089%=      5-min Rain = 0
KSE2 100521Z 19005KT 12/10 A3019 RMK A01 T01200103  RH  089%=      5-min Rain = 0
KSE2 100522Z 18005KT 12/10 A3018 RMK A01 T01190103  RH  090%=      5-min Rain = 0
KSE2 100523Z 18006KT 12/10 A3018 RMK A01 T01190103  RH  090%=      5-min Rain = 0
KSE2 100524Z 19006KT 12/10 A3018 RMK A01 T01190103  RH  090%=      5-min Rain = 0
KSE2 100525Z 19007KT 12/10 A3018 RMK A01 T01190103  RH  090%=      5-min Rain = 0
KSE2 100526Z 19006KT 12/10 A3018 RMK A01 T01190103  RH  090%=      5-min Rain = 0
KSE2 100527Z 19006KT 12/10 A3018 RMK A01 T01190103  RH  090%=      5-min Rain = 0
KSE2 100528Z 19007KT 12/10 A3018 RMK A01 T01190103  RH  090%=      5-min Rain = 0
KSE2 100529Z 19006KT 12/10 A3018 RMK A01 T01190103  RH  090%=      5-min Rain = 0
KSE2 100530Z 19007KT 12/10 A3018 RMK A01 T01190103  RH  090%=      5-min Rain = 0
KSE2 100531Z 18005KT 12/10 A3018 RMK A01 T01190103  RH  090%=      5-min Rain = 0
KSE2 100532Z 18006KT 12/10 A3018 RMK A01 T01190103  RH  090%=      5-min Rain = 0
KSE2 100533Z 17005KT 12/10 A3018 RMK A01 T01200103  RH  090%=      5-min Rain = 0
KSE2 100534Z 18007KT 12/10 A3018 RMK A01 T01190103  RH  089%=      5-min Rain = 0
KSE2 100535Z 18005KT 12/10 A3018 RMK A01 T01190103  RH  089%=      5-min Rain = 0
KSE2 100536Z 18006KT 12/10 A3018 RMK A01 T01200103  RH  089%=      5-min Rain = 0
KSE2 100537Z 18006KT 12/10 A3018 RMK A01 T01190103  RH  090%=      5-min Rain = 0
KSE2 100538Z 18005KT 12/10 A3018 RMK A01 T01190103  RH  090%=      5-min Rain = 0
KSE2 100539Z 18005KT 12/10 A3018 RMK A01 T01190102  RH  090%=      5-min Rain = 0
KSE2 100540Z 18006KT 12/10 A3018 RMK A01 T01190103  RH  090%=      5-min Rain = 0
KSE2 100541Z 18006KT 12/10 A3018 RMK A01 T01190103  RH  090%=      5-min Rain = 0
KSE2 100542Z 18006KT 12/10 A3018 RMK A01 T01180102  RH  090%=      5-min Rain = 0
KSE2 100543Z 18005KT 12/10 A3018 RMK A01 T01180102  RH  090%=      5-min Rain = 0
KSE2 100544Z 18004KT 12/10 A3018 RMK A01 T01180102  RH  090%=      5-min Rain = 0
KSE2 100545Z 17005KT 12/10 A3018 RMK A01 T01180102  RH  090%=      5-min Rain = 0
KSE2 100546Z 17005KT 12/10 A3018 RMK A01 T01180103  RH  090%=      5-min Rain = 0
KSE2 100547Z 18006KT 12/10 A3018 RMK A01 T01180103  RH  090%=      5-min Rain = 0
KSE2 100548Z 17005KT 12/10 A3018 RMK A01 T01180103  RH  090%=      5-min Rain = 0
KSE2 100549Z 17006KT 12/10 A3018 RMK A01 T01180102  RH  090%=      5-min Rain = 0
KSE2 100550Z 18005KT 12/10 A3018 RMK A01 T01180102  RH  090%=      5-min Rain = 0
KSE2 100551Z 17006KT 12/10 A3018 RMK A01 T01180102  RH  090%=      5-min Rain = 0
KSE2 100552Z 17005KT 12/10 A3018 RMK A01 T01180102  RH  090%=      5-min Rain = 0
KSE2 100553Z 18006KT 12/10 A3018 RMK A01 T01180102  RH  090%=      5-min Rain = 0
KSE2 100554Z 18006KT 12/10 A3018 RMK A01 T01170102  RH  090%=      5-min Rain = 0
KSE2 100555Z 17006KT 12/10 A3018 RMK A01 T01170102  RH  090%=      5-min Rain = 0
KSE2 100556Z 18006KT 12/10 A3018 RMK A01 T01170102  RH  090%=      5-min Rain = 0
KSE2 100557Z 17006KT 12/10 A3018 RMK A01 T01170102  RH  090%=      5-min Rain = 0
KSE2 100558Z 17006KT 12/10 A3018 RMK A01 T01170102  RH  091%=      5-min Rain = 0
KSE2 100559Z 18005KT 12/10 A3018 RMK A01 T01170102  RH  091%=      5-min Rain = 0

Page generated in 0.0822 seconds.